GFSWCAN_700_spd_000.txt.gz
Wind_Speed
53 44 42 43 44 42 40 38 36 36 34 33 31 28 28 26 24 24 24 23 25 28 26 25 24 21 21 22 22 22 21 21 22 21 20 24 18 15 18 19 21 23 22 25 24 18 20 13 22 30 50 47 49 59
47 50 46 42 43 44 40 39 41 36 35 34 32 31 29 29 27 27 25 26 29 31 31 31 28 24 21 20 24 23 26 22 17 19 23 20 25 30 31 37 31 22 21 29 31 31 48 49 49 50 48 50 49 46
18 32 44 45 41 37 43 41 38 40 39 36 34 31 31 30 29 30 29 27 29 33 37 36 31 26 33 33 31 35 32 32 32 32 33 32 33 35 37 30 34 25 33 38 41 49 46 47 41 41 45 46 45 30
21 17 24 38 43 43 42 44 44 42 43 41 36 35 36 38 35 36 35 33 33 35 41 45 38 37 34 37 39 31 35 29 35 33 34 42 45 37 42 48 37 39 44 46 51 47 39 41 45 45 42 45 41 41
16 15 18 19 21 27 38 46 52 49 49 45 44 43 41 41 39 38 37 35 36 37 38 40 45 43 37 32 27 25 26 26 30 39 40 45 45 45 50 54 46 42 44 40 46 38 42 50 40 38 42 36 45 35
21 27 21 18 22 21 22 26 34 39 39 33 32 38 34 34 39 43 47 46 43 43 46 54 48 40 41 33 39 36 38 37 38 42 48 47 49 39 46 52 48 41 39 35 46 41 36 42 44 44 40 47 24 29
25 23 24 23 18 20 20 21 24 27 31 34 34 32 37 36 37 37 42 47 37 33 39 42 43 41 35 29 21 24 29 34 35 38 43 47 47 45 49 55 48 49 47 43 32 38 36 35 37 38 25 27 28 36
22 22 22 24 27 27 23 23 25 26 28 29 31 34 36 35 42 44 43 44 43 38 38 39 44 44 35 30 28 29 29 29 40 43 46 44 45 46 52 53 54 43 33 30 38 41 43 42 49 30 29 32 41 50
24 23 21 21 21 24 28 27 25 27 28 28 29 30 32 39 41 41 40 39 35 37 36 38 45 39 32 28 23 22 28 39 41 45 44 45 51 49 53 49 38 32 44 44 45 42 30 31 28 32 37 43 51 49
24 23 22 21 21 21 21 23 25 26 27 28 26 24 27 33 37 39 42 46 44 43 39 42 40 31 31 36 31 24 21 23 24 39 33 39 49 45 44 44 33 34 37 35 36 34 31 27 34 40 46 44 45 47
26 25 24 23 21 20 19 20 22 24 25 26 27 29 32 34 34 34 26 20 17 17 23 35 38 36 35 30 29 23 11 10 14 23 20 25 31 28 13 17 27 28 31 30 25 28 25 34 40 41 43 43 43 44
27 27 26 24 22 20 18 16 15 17 20 19 20 22 23 24 18 14 12 13 12 10 12 13 16 18 21 20 11 8 11 8 10 16 15 21 23 19 22 25 28 20 23 26 29 38 42 43 44 46 48 47 45 42
27 27 25 24 22 21 19 17 14 12 12 13 14 14 10 12 15 10 12 9 9 13 16 16 15 13 12 11 8 8 8 13 16 13 17 22 13 20 20 12 16 19 27 36 43 49 50 47 44 44 45 44 41 39
26 25 24 24 22 21 21 19 17 16 14 13 10 10 9 7 9 10 14 13 17 17 15 14 14 10 13 13 11 9 12 13 12 19 25 25 20 19 22 27 30 35 44 49 50 46 44 44 41 44 45 43 38 34
23 22 22 23 23 21 20 20 19 18 17 16 8 7 14 16 15 11 14 16 16 15 16 17 17 18 18 11 10 8 7 9 16 21 20 19 23 26 31 36 41 46 49 47 44 44 40 39 44 44 41 36 36 32
22 23 24 22 21 20 19 19 19 19 20 20 14 13 16 14 15 16 13 11 13 16 16 17 15 13 15 11 15 14 15 25 28 27 27 31 34 39 45 47 47 46 45 43 43 42 42 44 43 40 36 35 29 25
23 23 20 20 19 20 21 22 19 19 13 16 21 26 25 17 8 6 8 10 13 16 20 21 12 14 12 14 21 22 28 30 32 33 36 40 41 42 45 46 45 44 49 48 45 42 42 40 41 37 34 26 21 18
20 18 19 19 20 20 20 19 18 18 22 24 23 22 21 19 18 18 19 21 25 27 27 26 22 24 23 27 32 32 33 37 40 42 41 39 38 40 43 46 47 46 45 42 42 36 37 36 35 30 23 17 17 16
19 18 18 17 16 16 16 17 20 23 24 26 27 27 24 24 23 23 24 24 24 24 24 26 20 29 33 35 36 37 37 36 38 39 39 40 43 45 46 46 44 44 44 44 42 40 38 36 32 24 19 17 17 13
17 18 17 16 16 16 17 20 22 24 26 26 27 24 23 22 19 18 17 19 20 24 30 35 41 41 41 40 37 37 37 38 40 43 44 42 41 42 43 42 42 42 41 38 38 36 33 32 25 20 17 16 16 12
18 18 18 18 18 15 17 19 18 15 15 18 18 14 13 13 16 14 13 16 24 32 35 36 35 35 33 33 33 32 35 36 39 39 42 45 42 39 39 39 36 34 33 32 31 31 31 28 24 19 14 16 14 12
15 16 17 17 16 16 20 20 14 13 15 18 16 16 20 22 23 22 22 28 30 29 27 28 27 26 27 30 31 34 35 37 39 37 39 40 40 39 39 36 35 34 33 33 31 30 28 23 18 18 18 13 11 13
14 13 13 12 15 14 14 13 16 17 19 22 20 18 20 21 24 26 28 29 28 17 19 23 25 26 30 32 35 35 31 26 30 34 34 33 35 37 36 33 34 32 32 28 25 23 21 18 21 20 14 10 13 15
14 15 18 13 14 16 17 16 17 20 21 20 20 24 28 29 28 31 35 34 25 22 24 23 24 27 28 29 29 27 25 28 32 33 32 34 34 35 36 28 27 26 23 20 20 21 19 22 21 14 10 13 14 16
20 18 23 24 26 21 24 24 24 24 27 27 29 26 28 23 23 29 35 31 24 20 19 19 19 20 22 23 24 26 23 27 31 32 26 31 32 25 23 23 24 23 19 22 22 24 22 16 13 12 13 14 16 16
21 17 17 20 25 28 26 25 29 29 27 26 26 25 25 22 22 25 30 24 19 15 14 15 17 20 22 23 24 24 25 26 25 26 25 27 26 25 25 25 24 20 20 21 15 13 12 11 13 13 13 15 16 16
25 20 21 24 25 24 24 28 28 24 22 24 27 21 20 18 20 33 23 16 16 15 18 18 20 22 25 28 26 24 25 26 26 25 25 26 24 26 26 25 21 16 18 13 10 12 13 13 13 14 15 16 16 16
33 30 30 30 31 32 31 31 30 29 29 27 25 26 24 24 30 26 20 21 25 25 27 30 32 31 29 28 27 28 29 30 28 27 26 26 24 23 21 19 18 16 13 12 13 14 13 14 15 17 17 18 18 17
38 38 35 35 32 30 32 35 36 35 32 34 35 35 36 34 32 31 28 30 32 32 30 30 30 29 27 27 29 29 30 29 27 27 29 27 24 22 20 20 19 17 15 15 17 17 16 18 18 19 19 19 19 20
36 31 31 31 32 35 35 35 35 28 30 32 33 33 35 32 27 27 29 32 33 32 32 31 30 28 28 28 29 28 27 27 28 29 28 25 22 22 22 22 21 21 19 19 18 18 19 20 22 20 20 20 21 22
29 26 29 29 31 30 29 27 27 29 28 25 20 24 27 26 25 27 29 29 28 28 28 27 27 28 29 30 28 29 29 30 28 25 23 22 22 21 20 19 20 22 24 21 23 20 20 19 18 20 21 20 22 23
31 32 31 34 39 36 33 34 34 35 33 32 35 35 32 30 29 30 28 24 22 22 23 23 24 25 27 28 28 27 26 24 21 20 20 22 21 18 17 16 16 17 16 17 18 19 21 21 21 20 20 21 22 23
32 31 31 32 32 31 29 31 33 34 33 32 31 29 27 27 27 31 28 25 24 23 22 23 24 24 24 23 23 22 21 20 20 20 20 19 17 17 17 16 15 15 15 15 16 16 17 18 19 20 20 21 22 22

GFSWCAN_700_spd_003.txt.gz
Wind_Speed
45 42 41 39 37 38 37 36 34 32 30 28 28 27 26 25 24 22 20 20 21 22 21 20 19 17 17 19 20 20 17 21 23 20 18 19 14 14 16 19 19 21 17 25 18 12 15 6 29 41 47 46 45 48
51 51 49 43 41 40 40 38 35 34 32 30 29 29 28 27 26 25 24 23 24 24 23 23 20 20 21 19 20 23 25 22 19 25 24 24 26 27 32 30 25 27 28 28 28 33 44 45 44 42 36 36 44 45
45 52 54 46 38 40 42 40 37 37 33 31 29 29 28 30 29 27 27 24 25 28 29 27 22 21 24 28 28 29 30 29 30 31 36 38 29 27 29 32 33 28 30 38 41 46 47 45 36 38 38 41 42 46
18 32 51 48 44 38 38 39 39 39 35 33 32 29 27 28 29 30 27 26 26 31 37 40 36 33 29 27 29 36 35 31 34 31 36 41 42 35 41 44 44 39 35 48 46 46 41 41 42 42 43 48 52 40
9 11 9 19 33 45 39 37 32 37 36 35 34 29 28 28 33 32 32 33 34 31 36 40 41 37 34 27 30 40 43 41 36 31 40 42 42 45 53 48 48 40 43 38 46 41 40 48 46 50 49 53 35 36
13 12 12 9 12 22 36 36 38 32 33 31 33 32 34 35 39 39 43 46 42 42 39 41 48 40 31 30 33 31 32 30 31 37 44 45 42 36 43 46 41 42 42 46 47 52 39 43 44 47 32 29 37 32
16 16 15 15 12 14 13 17 21 23 27 28 32 33 34 37 36 41 42 41 27 30 35 42 42 37 25 27 25 30 29 28 31 35 41 42 44 43 44 51 51 47 44 47 45 33 43 42 37 45 40 37 35 36
24 22 22 19 19 18 15 13 15 16 16 17 18 26 23 26 29 35 34 36 42 33 36 36 36 34 35 29 27 21 24 27 32 34 39 42 44 49 49 47 49 46 50 49 33 34 40 42 51 38 36 36 33 41
28 27 22 20 19 17 19 23 22 19 18 19 21 24 26 29 34 31 34 33 34 37 33 34 37 31 21 22 23 23 22 26 30 36 35 36 43 48 51 51 51 45 42 39 46 51 51 40 44 35 33 40 42 42
28 26 23 21 20 19 17 17 21 23 19 20 22 24 26 32 34 36 31 29 31 33 38 45 46 49 47 41 31 26 23 18 19 29 23 33 44 43 41 34 31 29 36 35 35 32 20 28 32 38 43 43 45 45
25 25 23 22 21 19 17 17 17 18 18 18 21 24 25 25 21 24 21 24 24 27 33 39 36 33 36 33 31 21 10 9 12 17 17 20 29 32 28 25 24 28 30 24 28 33 28 33 40 44 43 41 42 43
24 25 24 24 23 21 19 17 15 14 16 16 17 18 21 24 17 13 17 17 18 14 16 19 17 17 24 26 19 12 11 8 9 12 10 16 23 28 21 21 25 26 27 30 23 25 35 43 44 41 40 40 39 42
24 23 23 24 24 23 20 17 14 13 11 10 11 12 9 12 15 10 13 10 10 13 14 16 14 15 16 18 10 6 7 10 13 10 15 17 17 13 19 24 26 23 26 30 29 39 45 48 46 42 40 39 43 42
26 25 25 26 25 23 20 17 16 13 12 11 10 10 9 8 10 14 15 10 16 17 15 14 13 9 12 7 7 6 9 8 7 10 17 19 21 21 20 21 22 27 30 37 43 47 50 43 39 41 42 43 43 42
25 25 26 27 24 21 19 18 18 17 15 12 7 7 14 16 13 9 12 15 16 16 15 15 14 14 12 7 7 8 7 8 7 7 11 17 21 26 29 31 34 39 44 48 48 41 39 43 42 42 40 39 40 40
24 25 25 24 20 17 19 19 19 17 17 16 12 12 13 12 13 15 16 14 14 15 12 10 8 6 8 7 12 11 9 16 14 15 21 26 32 37 38 39 43 45 43 41 42 42 42 42 41 39 38 36 37 34
22 22 22 21 23 24 20 20 20 21 15 15 18 23 23 19 10 9 11 13 13 12 12 11 9 8 10 11 17 21 30 31 31 32 31 32 37 43 45 42 39 39 40 40 43 43 43 44 41 37 36 34 33 26
19 18 19 19 18 17 17 17 19 19 23 24 20 19 19 17 13 13 14 15 18 19 21 24 24 27 24 31 38 38 35 37 36 37 40 42 40 40 39 39 38 38 40 42 43 44 43 43 38 32 33 33 28 23
17 17 18 18 19 19 17 19 21 21 22 22 22 21 18 17 16 17 18 20 22 24 27 31 22 32 38 36 32 32 35 37 39 37 39 40 41 42 40 38 38 39 38 39 39 38 39 32 30 27 29 30 24 20
18 18 17 18 17 16 15 15 17 19 18 21 22 21 22 20 19 20 22 23 23 26 31 37 40 36 36 33 32 33 34 36 39 41 40 37 37 38 36 37 39 37 36 37 35 34 32 29 26 26 27 27 21 17
17 17 17 15 14 16 17 16 14 13 13 17 19 18 16 15 17 15 15 17 23 32 33 26 28 29 26 28 31 32 33 31 33 34 37 39 39 32 36 36 34 36 37 37 36 35 33 29 26 25 25 20 14 22
17 17 17 19 19 19 21 20 15 14 16 18 18 19 20 17 16 20 20 25 31 32 31 32 30 28 30 29 27 28 30 31 33 34 32 28 32 36 36 36 36 35 40 36 31 31 28 23 21 21 19 17 16 19
14 13 15 16 17 15 13 14 15 16 15 19 16 17 20 21 17 16 26 33 34 26 22 25 25 23 26 28 30 31 29 27 26 25 28 28 32 32 34 37 34 30 26 25 26 24 20 19 18 14 18 22 18 12
13 13 12 8 11 11 13 13 15 14 16 17 18 21 23 25 26 31 37 34 30 27 23 23 24 26 27 26 25 23 22 21 25 26 25 30 31 29 29 31 27 26 28 27 22 20 21 22 17 17 22 20 14 11
14 11 11 13 14 15 20 21 20 19 23 23 25 28 31 31 30 32 35 33 26 22 22 22 22 23 22 20 21 22 22 24 25 25 26 28 27 26 28 26 25 26 26 22 16 20 20 19 20 21 17 12 13 11
20 15 11 15 19 21 23 24 26 26 25 23 26 25 26 27 28 31 32 26 22 21 18 17 18 19 20 21 23 25 26 24 23 24 26 29 29 28 27 28 28 24 21 21 19 16 12 11 10 10 12 13 12 13
22 21 21 22 24 24 24 25 25 24 22 25 29 26 23 24 28 32 22 21 22 22 17 18 19 20 23 25 28 33 33 32 31 31 31 32 29 28 28 28 24 23 20 18 17 15 13 13 13 13 13 13 14 15
30 31 32 29 28 29 30 30 29 31 32 32 31 30 30 30 32 27 26 26 30 32 31 32 31 30 31 33 35 36 36 32 30 31 33 31 26 26 26 25 23 22 21 19 17 16 15 15 15 15 15 16 17 18
35 34 32 32 31 31 34 36 36 34 30 28 30 33 34 34 33 29 26 27 30 33 33 31 31 33 34 35 35 35 33 31 31 32 31 28 27 27 26 23 22 22 22 19 18 18 18 18 18 19 21 23 21 21
36 35 36 37 37 37 35 32 30 23 23 25 28 31 30 28 20 16 22 26 29 31 31 30 29 30 29 29 30 29 28 29 30 30 30 29 28 26 24 22 22 23 23 23 23 23 23 21 20 22 22 20 21 22
27 29 31 31 33 31 28 28 30 31 32 31 31 33 35 29 25 25 28 29 26 24 24 25 25 24 23 23 24 26 27 28 28 28 27 26 24 22 23 22 20 18 17 16 16 18 20 22 22 19 19 20 20 19
27 28 29 31 32 30 31 33 36 37 35 34 33 31 29 29 32 35 33 31 25 23 22 21 21 22 24 24 24 26 25 25 24 24 23 22 21 22 22 20 18 18 18 16 16 15 15 16 18 20 22 23 23 21
30 29 27 29 31 31 26 25 28 30 30 30 29 26 25 24 24 27 26 24 24 22 21 20 20 21 21 21 22 23 22 22 22 22 21 21 21 21 20 19 18 17 17 17 17 17 17 17 18 19 20 21 21 22

GFSWCAN_700_spd_006.txt.gz
Wind_Speed
50 44 43 40 37 35 34 33 31 30 29 27 26 25 24 22 21 20 20 19 18 18 17 16 15 15 15 15 16 18 18 22 21 18 14 16 15 14 17 21 20 21 16 23 19 11 14 15 16 32 47 55 49 45
47 48 45 39 35 34 34 33 32 31 30 28 28 27 26 24 22 22 22 21 21 21 19 17 16 16 15 17 18 20 23 23 15 17 20 20 25 28 31 31 32 28 27 29 29 34 40 44 43 38 39 40 44 45
49 49 48 40 36 36 34 33 33 33 32 30 28 28 26 26 25 24 23 24 25 25 26 25 23 23 23 22 22 26 27 26 26 25 29 32 35 39 36 27 23 30 32 41 41 45 43 38 35 35 38 42 45 46
27 43 50 46 42 40 37 35 35 35 35 33 32 30 28 28 27 24 24 24 23 29 32 27 23 21 22 28 27 23 25 28 29 29 32 34 34 31 37 40 43 43 36 41 46 38 39 37 38 42 44 46 50 51
23 34 42 44 43 42 41 40 37 39 36 34 33 30 30 30 26 24 27 27 27 26 27 27 29 31 28 27 33 36 35 29 30 41 40 40 43 39 47 47 40 40 44 38 45 38 43 45 44 47 46 46 47 40
18 22 33 41 47 45 38 31 35 34 33 33 33 32 32 30 29 28 30 30 28 28 34 41 44 46 48 36 29 31 32 35 33 34 38 43 40 36 43 42 43 45 43 44 40 45 38 39 41 44 51 39 33 31
16 12 10 9 9 21 41 40 38 35 31 31 29 34 35 31 30 31 33 34 31 32 39 47 43 28 17 18 18 18 23 24 26 30 38 37 40 42 48 52 48 44 41 41 35 34 40 42 43 35 32 28 30 35
16 17 12 12 13 12 12 12 16 26 30 30 31 30 31 31 32 33 36 31 30 27 27 26 27 19 22 19 22 22 21 22 32 37 39 38 41 40 42 47 43 39 37 38 40 40 38 39 43 40 30 32 37 36
24 19 17 17 17 15 13 15 13 14 17 18 21 24 24 30 37 37 28 24 28 37 34 30 27 28 22 17 16 24 35 37 33 36 35 34 40 42 45 38 34 34 32 33 34 34 34 37 34 29 30 35 39 41
27 23 20 17 15 14 15 17 21 19 17 17 18 23 31 33 27 25 25 26 21 23 35 40 35 30 29 33 40 35 19 19 19 29 26 31 38 34 24 21 25 27 30 32 33 31 34 32 31 33 37 41 44 41
28 26 24 24 21 17 14 13 13 15 19 19 22 24 25 23 25 25 20 18 18 20 23 32 32 37 41 34 26 19 15 11 10 15 13 14 22 20 16 22 25 24 24 27 29 28 24 26 32 37 42 46 47 43
26 25 24 23 22 20 17 15 14 14 15 18 19 19 17 14 10 9 12 12 14 13 16 21 18 16 20 19 15 12 16 9 8 10 7 7 12 20 18 17 18 23 26 22 20 24 27 31 39 44 44 44 41 40
26 24 22 22 21 19 19 18 17 15 13 13 15 16 10 12 15 11 14 14 13 17 21 17 15 10 13 16 12 9 7 11 10 7 6 12 15 11 13 15 16 17 21 24 28 34 39 45 47 43 41 41 41 43
26 24 23 22 21 19 18 17 16 14 11 11 11 12 10 9 11 20 19 15 18 14 13 12 11 9 12 10 10 7 9 7 5 6 13 17 17 17 17 19 23 27 32 36 41 46 49 45 42 41 42 42 43 45
25 24 22 21 19 17 17 17 17 13 12 12 9 8 15 16 12 7 12 15 15 13 13 12 14 16 15 10 7 9 6 7 8 9 15 17 19 23 28 34 38 40 44 47 48 44 41 41 42 43 44 44 42 39
26 23 21 18 18 17 18 18 17 16 17 16 13 13 11 9 11 12 11 12 13 13 13 11 13 9 11 9 10 10 8 13 16 17 17 22 29 36 39 40 41 47 46 41 40 39 39 42 43 45 46 44 38 35
21 20 19 14 15 15 16 16 15 18 14 14 16 20 19 16 10 9 10 12 13 15 15 14 11 9 9 10 13 17 26 25 23 25 28 29 36 42 45 46 43 40 38 37 37 39 41 42 41 41 41 38 32 31
17 15 16 21 22 19 18 18 17 17 19 20 16 17 17 16 14 12 13 12 11 13 13 17 20 22 21 24 34 34 30 31 31 34 36 37 40 40 39 39 37 37 38 37 39 40 38 37 38 36 37 33 30 27
16 17 18 18 19 19 18 18 21 19 22 21 20 19 18 16 14 13 13 15 17 20 22 27 20 29 36 35 32 29 29 31 32 35 35 36 39 38 37 34 36 34 35 37 37 38 38 37 35 35 35 33 30 25
18 18 18 18 17 17 19 16 17 18 16 19 18 16 17 15 15 17 18 20 23 26 30 35 38 35 33 24 25 28 29 31 34 37 38 35 34 34 35 32 32 35 36 37 39 38 39 36 30 30 30 28 27 24
18 19 18 18 20 20 17 11 10 10 11 12 12 12 13 14 14 15 16 17 23 31 36 31 27 26 25 30 32 33 33 33 33 33 35 37 34 32 28 30 31 32 34 38 33 30 26 27 25 25 23 20 19 18
16 15 16 18 18 16 16 15 11 11 13 16 17 17 18 16 14 14 16 22 29 30 26 26 27 27 29 31 29 27 28 29 31 31 27 27 29 30 30 29 33 32 32 33 31 31 29 25 20 20 20 19 15 13
17 17 17 16 14 11 11 13 15 16 15 16 12 12 15 15 15 14 19 22 25 25 25 26 25 25 27 25 27 29 27 24 24 24 24 26 27 27 31 31 32 31 31 29 31 30 27 23 18 16 15 13 13 17
15 15 16 11 13 12 13 14 15 12 13 13 13 16 18 20 22 25 30 29 25 21 20 18 20 23 25 27 29 27 21 19 23 24 24 26 26 25 27 28 29 30 31 31 30 26 23 25 21 17 15 15 17 18
15 13 9 12 13 13 16 15 14 13 15 15 19 21 24 22 23 28 31 27 18 18 18 17 19 22 25 25 23 18 18 22 22 25 26 27 29 28 28 31 31 29 29 28 26 23 20 17 16 14 13 14 11 11
13 9 8 9 12 14 13 14 14 15 16 16 20 21 21 22 27 26 30 21 14 12 15 18 18 16 17 19 21 21 24 27 30 33 31 32 32 32 32 33 28 24 26 26 24 22 19 16 14 14 14 12 14 14
16 12 15 20 19 16 16 16 16 18 20 22 24 23 24 23 25 28 24 22 17 16 19 22 26 27 27 26 27 29 31 33 36 36 36 34 31 31 32 31 28 27 26 25 24 22 21 18 16 15 15 14 14 14
26 27 27 24 24 23 23 25 27 29 28 27 27 29 31 31 33 28 25 24 26 29 32 34 35 36 36 34 33 33 35 36 38 37 33 29 29 31 31 30 30 28 27 25 23 22 22 20 18 18 18 17 17 18
27 28 29 28 26 27 30 32 35 35 31 29 29 30 31 30 29 28 24 25 27 30 32 29 27 30 31 32 33 34 35 35 34 31 28 27 28 28 29 29 27 25 24 24 24 24 23 23 22 22 22 23 23 22
32 29 31 32 32 35 33 29 29 24 23 25 26 30 32 31 28 28 30 29 27 26 24 26 29 30 29 29 29 28 28 27 26 25 26 27 28 28 26 24 23 22 23 22 21 19 19 22 25 27 26 25 24 23
23 25 27 28 30 28 26 26 28 28 28 29 31 35 37 35 33 33 32 32 30 31 33 33 31 31 30 29 27 27 26 25 24 25 26 26 24 24 23 22 22 22 21 20 19 19 19 18 17 16 14 14 16 18
26 26 28 30 31 28 28 29 31 32 32 33 34 33 31 30 29 30 27 25 24 23 23 24 25 25 27 27 26 27 26 24 23 23 23 23 22 22 21 21 20 20 20 19 18 18 17 17 17 16 16 16 17 19
23 23 24 27 30 31 30 29 32 33 31 31 30 26 24 23 23 26 25 22 22 22 20 19 20 21 20 20 20 20 20 20 21 21 22 21 21 21 21 22 22 22 22 22 22 22 21 21 21 21 22 22 23 23

GFSWCAN_700_spd_009.txt.gz
Wind_Speed
46 50 45 42 42 37 36 35 34 33 30 29 27 25 24 24 23 21 20 19 17 16 15 14 14 15 15 17 17 16 14 17 18 17 15 15 11 13 16 18 19 20 16 23 17 8 14 20 25 33 44 49 43 44
44 42 44 41 40 42 39 35 34 33 32 30 28 27 25 24 24 23 22 21 20 19 15 13 15 16 18 19 20 20 21 19 15 19 15 15 19 27 30 33 32 24 28 28 21 24 43 46 45 37 32 37 42 44
36 48 44 46 48 41 38 38 36 34 32 30 29 28 27 27 26 25 24 23 22 22 21 21 18 20 22 24 25 25 22 20 24 24 28 29 31 32 33 29 28 25 32 38 35 46 41 39 39 32 34 38 40 41
32 38 53 46 45 45 40 37 35 33 32 30 29 29 28 28 28 27 26 25 24 24 26 22 22 23 24 28 28 24 22 23 23 25 29 35 35 30 35 42 41 35 44 39 46 41 43 39 37 44 43 41 38 44
24 36 41 53 48 45 41 38 35 34 33 30 30 29 29 29 29 29 28 27 27 25 23 23 26 24 28 31 24 26 23 28 33 37 38 37 36 41 49 45 35 41 38 41 44 43 40 39 49 45 36 41 45 40
24 30 36 44 47 47 40 37 37 36 34 31 30 30 31 32 31 29 29 28 26 26 26 32 34 33 29 33 33 33 40 38 30 33 38 41 38 33 35 40 40 40 40 31 48 36 37 39 40 34 39 39 34 35
23 25 30 35 48 46 44 44 41 40 35 34 32 32 32 34 32 32 31 28 23 23 25 33 30 32 27 24 26 16 17 22 23 27 34 32 30 34 42 45 39 42 39 39 33 36 35 38 38 39 34 38 35 26
18 12 18 31 35 43 46 44 45 39 38 39 37 33 33 30 32 33 32 28 25 29 30 24 23 21 20 16 17 23 23 25 28 29 31 38 41 36 38 39 35 30 33 34 37 36 32 31 32 34 36 30 32 30
18 15 12 10 11 15 20 35 42 38 39 37 38 34 30 30 32 33 27 26 28 27 26 31 29 27 20 17 13 19 26 26 29 37 43 37 31 23 30 29 32 30 32 29 30 29 28 28 29 27 28 29 33 37
23 22 16 13 13 16 13 11 12 10 11 15 23 21 30 34 27 24 31 31 37 31 30 36 35 26 27 28 24 21 24 27 33 29 21 27 36 32 29 25 28 28 28 26 22 21 25 30 34 35 34 35 41 45
27 24 21 17 16 16 14 14 17 16 16 21 25 28 25 26 23 24 16 11 11 16 23 34 33 29 30 29 26 23 16 12 13 21 18 15 20 19 21 23 23 23 22 21 24 32 35 33 35 36 40 44 42 40
29 27 22 20 17 15 15 14 14 17 20 22 22 22 24 23 22 14 16 15 15 13 20 21 21 21 22 23 18 10 15 10 9 10 7 6 12 16 19 16 15 15 18 20 25 28 28 35 45 47 48 44 41 42
26 24 22 21 20 20 15 13 13 12 12 14 18 18 16 14 12 13 15 13 13 20 24 17 14 12 14 13 10 10 8 9 9 7 6 12 18 20 17 16 16 17 22 26 31 37 42 46 50 49 45 43 43 44
27 25 23 21 21 19 19 19 16 12 10 13 12 10 11 9 11 22 23 18 21 17 14 11 10 7 11 10 10 6 10 7 5 7 18 21 22 21 20 21 25 28 32 39 43 46 48 52 47 44 44 44 45 45
30 27 23 20 19 18 17 17 15 12 11 11 9 8 15 16 14 10 14 19 18 15 13 10 11 12 12 10 7 8 5 6 7 8 14 17 20 22 25 29 34 39 44 50 51 52 47 44 42 41 42 44 42 42
33 27 23 19 18 18 17 14 12 12 13 13 12 12 10 9 10 13 11 11 11 11 10 10 10 7 11 9 9 9 7 12 14 14 15 18 23 29 34 39 43 45 49 46 43 39 38 38 40 42 42 39 39 39
26 24 23 22 20 17 16 15 14 16 13 14 17 19 16 12 8 8 8 9 10 11 12 9 8 9 8 9 10 17 23 20 18 19 21 25 32 37 41 44 43 41 39 37 36 38 38 40 38 40 41 38 38 37
20 20 20 19 18 16 16 16 15 14 17 19 14 14 16 15 14 14 15 16 16 16 16 20 19 18 14 18 26 24 23 25 28 32 35 37 39 40 37 37 36 35 35 36 35 36 36 38 40 41 42 39 37 34
18 19 20 19 20 19 15 16 18 14 19 18 17 17 17 17 16 15 14 13 14 16 18 23 17 21 28 29 26 24 26 30 32 33 33 34 36 36 34 33 34 33 32 31 33 35 37 37 35 34 32 33 32 30
19 19 20 21 23 20 17 16 17 20 15 15 14 15 16 15 14 15 16 18 21 23 26 31 32 31 28 26 25 25 27 30 36 38 35 32 30 31 32 32 29 30 31 31 34 35 35 34 33 33 31 29 26 24
22 23 21 18 18 19 18 10 13 11 12 14 12 12 13 12 13 15 17 19 24 29 32 32 27 25 22 24 26 30 33 32 33 34 33 32 31 31 29 28 29 29 31 32 34 33 33 35 36 31 27 23 24 22
17 16 17 18 18 18 19 14 11 12 12 12 11 11 12 13 13 13 17 22 26 27 24 22 22 24 27 29 30 30 31 31 31 31 31 29 29 29 29 29 30 30 29 31 33 33 33 35 34 28 27 22 19 17
16 17 17 17 17 15 12 15 15 14 13 14 10 10 12 9 9 10 16 21 20 18 20 26 26 26 29 30 30 30 30 30 30 29 27 24 24 25 27 26 27 30 31 31 34 33 32 32 31 27 23 17 15 15
15 15 16 11 12 11 12 12 12 11 12 10 10 10 13 14 15 19 25 25 20 17 19 20 22 24 23 22 23 24 22 23 25 24 21 22 23 25 28 30 33 35 35 35 32 30 30 28 28 26 22 17 18 18
16 14 9 12 12 12 15 14 12 11 9 9 12 14 16 17 20 24 28 27 18 16 19 21 17 16 19 18 15 15 17 20 21 23 23 26 30 33 32 32 33 32 32 32 29 30 29 26 25 24 21 19 17 14
14 12 8 8 11 12 10 8 6 7 8 10 12 14 17 20 24 24 27 23 15 15 15 17 18 19 20 20 22 24 25 26 28 31 31 33 35 37 37 36 33 28 30 31 30 30 30 27 24 23 22 20 18 17
12 9 14 16 11 8 8 9 11 13 16 18 20 20 20 20 23 25 20 21 23 22 19 18 22 25 29 34 34 33 32 33 34 34 34 35 36 35 35 34 30 29 29 30 30 30 29 27 25 22 23 22 19 18
15 19 17 13 16 15 17 19 19 23 22 21 22 25 19 21 30 31 29 28 27 28 29 31 33 35 37 35 32 31 33 33 33 33 33 33 34 33 32 30 30 29 30 30 29 27 27 26 26 25 26 26 25 24
24 22 21 21 20 22 25 27 30 30 28 27 29 31 33 33 33 32 28 25 26 29 30 30 30 30 29 28 29 33 34 33 31 30 31 31 29 28 27 27 28 28 27 26 26 26 25 25 24 24 25 27 28 28
26 25 25 24 25 28 28 25 25 23 24 27 31 36 37 37 34 32 33 35 35 34 35 34 34 33 34 35 37 38 38 35 30 28 28 27 26 27 27 26 25 24 24 23 23 23 22 21 21 22 23 23 22 21
21 23 23 24 26 27 27 29 31 32 33 35 35 37 40 37 35 37 37 37 37 36 34 31 30 30 30 28 29 29 30 31 29 27 27 27 26 25 24 24 24 23 23 22 21 21 21 21 20 21 20 19 18 17
21 22 24 26 26 24 26 29 31 35 36 38 40 38 34 32 33 33 32 32 32 28 24 24 24 24 24 24 24 23 23 22 22 21 20 21 21 22 22 22 22 22 22 22 23 23 23 23 22 22 22 22 22 22
20 22 23 24 24 25 24 28 31 31 32 29 26 25 25 26 29 30 28 26 26 24 23 24 22 21 21 18 17 19 20 21 21 21 21 21 22 22 22 22 23 23 24 25 25 25 25 25 25 25 25 24 24 24

GFSWCAN_700_spd_012.txt.gz
Wind_Speed
51 49 42 38 37 35 34 34 31 29 28 26 25 24 23 21 20 20 19 19 17 16 15 14 16 16 16 16 16 16 16 20 18 18 13 11 10 11 14 16 17 20 16 23 15 8 10 8 23 32 40 44 47 46
44 47 43 46 41 38 36 34 32 32 30 28 27 25 24 23 23 22 22 21 20 19 15 16 18 18 17 17 17 20 22 22 14 13 10 9 13 20 22 26 27 22 23 23 22 26 40 44 46 37 37 42 44 43
35 39 45 47 42 42 39 34 33 33 31 31 30 28 27 26 25 24 23 23 22 21 20 21 20 19 18 18 20 24 25 24 24 23 23 25 26 27 28 27 26 29 25 34 35 41 40 29 34 38 39 42 44 49
36 34 44 48 46 42 40 38 35 32 32 32 31 30 28 27 26 25 25 25 24 24 25 21 16 18 20 20 23 28 29 30 28 26 28 28 32 29 32 36 35 31 41 41 40 37 34 33 36 38 44 38 41 32
19 32 36 51 42 44 40 37 37 37 35 33 32 31 30 28 27 27 27 26 26 23 22 18 20 26 25 22 22 27 23 21 24 28 31 34 37 39 43 32 34 39 32 34 42 30 41 42 36 39 38 34 42 35
11 17 29 38 49 43 43 42 37 35 36 35 33 31 29 27 27 27 28 28 26 26 29 30 29 30 30 28 28 28 25 30 32 33 39 43 35 29 38 36 30 32 37 39 34 36 40 33 38 37 45 36 33 34
17 15 20 29 35 40 41 40 41 39 37 36 33 32 30 28 29 29 30 26 24 24 27 29 29 32 25 21 14 16 26 33 35 33 36 34 32 30 37 37 39 37 29 27 31 35 37 37 35 34 33 31 28 27
14 16 18 26 30 35 37 41 43 42 39 34 33 31 30 30 29 29 29 29 28 27 27 22 24 24 26 21 16 17 18 20 27 30 31 33 31 30 33 35 34 26 30 28 33 35 31 32 29 26 31 32 32 33
13 15 21 23 26 35 37 41 42 46 37 31 35 35 35 34 36 33 33 28 29 32 28 29 29 24 16 17 15 20 24 20 27 29 29 27 27 24 29 27 28 31 33 30 27 29 30 26 25 31 34 36 37 42
14 13 12 3 14 23 42 47 46 39 38 41 37 33 38 39 35 33 29 35 30 42 37 35 33 25 26 17 17 22 19 14 19 24 24 29 36 29 23 32 30 30 29 30 30 30 28 28 31 35 38 40 45 52
21 17 14 12 7 5 9 20 44 44 36 37 34 34 29 28 31 33 28 19 20 22 29 29 30 28 26 26 20 18 13 10 13 18 18 13 19 24 26 26 27 29 29 28 29 29 32 34 37 39 42 48 51 52
26 22 21 18 10 12 13 11 9 9 10 19 19 14 13 12 8 6 8 10 11 12 12 11 11 16 23 25 18 14 17 10 9 10 8 7 19 21 25 25 25 24 25 26 27 31 32 37 44 49 53 52 47 45
27 25 24 20 14 16 14 14 15 15 15 14 14 14 9 10 11 9 13 13 9 11 16 18 17 15 15 11 9 10 8 11 10 7 7 15 20 22 24 25 24 25 26 29 32 36 41 49 53 54 50 44 42 43
27 24 24 26 20 16 14 15 15 15 17 19 19 16 9 8 11 21 21 19 23 21 17 13 12 10 13 10 11 7 10 6 5 7 18 20 21 22 23 24 25 29 33 37 41 47 51 52 49 44 40 40 42 42
26 22 19 18 20 19 15 14 14 13 14 10 8 7 14 15 13 8 11 16 16 16 14 11 12 12 11 9 7 8 5 5 6 9 13 14 16 19 22 27 31 36 40 45 49 49 46 42 40 40 40 42 41 42
29 25 22 19 18 17 17 16 14 14 17 11 11 11 8 9 10 12 11 10 9 9 11 12 12 7 10 8 9 8 5 9 12 12 14 16 22 27 31 34 38 44 46 44 40 39 38 39 39 40 41 41 42 41
33 31 25 21 19 19 18 15 15 19 14 14 14 14 12 10 7 7 8 10 11 12 13 11 7 9 7 8 8 12 19 19 17 15 21 25 29 34 38 40 39 37 37 37 36 36 35 36 37 38 39 39 37 36
35 29 25 23 20 19 17 18 18 17 18 19 14 11 12 14 15 15 15 15 14 15 16 17 16 17 10 12 19 19 16 17 23 29 32 35 38 35 36 38 36 33 32 34 33 33 34 35 36 37 38 39 39 38
35 30 25 22 20 19 19 19 20 16 17 15 13 12 12 12 12 12 13 14 14 15 17 21 15 18 23 25 26 24 23 27 32 36 38 38 35 36 33 30 29 30 30 30 31 31 34 36 35 37 38 39 37 34
23 22 21 19 20 19 15 13 15 16 12 12 12 12 12 13 14 15 15 16 17 20 23 27 29 27 26 27 29 29 29 31 34 36 35 35 33 31 30 30 29 28 28 27 27 29 32 35 34 34 37 38 36 33
23 23 21 20 19 19 17 10 10 11 11 14 13 10 12 13 14 15 17 18 22 27 30 29 26 25 24 27 28 28 30 32 35 38 38 35 31 29 28 27 27 27 27 26 26 29 33 37 38 33 34 35 34 31
21 20 20 20 20 20 19 14 11 12 9 8 8 9 11 12 13 16 20 23 25 25 24 23 21 23 26 27 29 32 34 34 33 33 34 33 31 30 26 24 25 26 27 29 32 35 36 38 35 33 32 31 28 26
17 19 19 18 14 13 12 15 14 13 11 12 10 12 14 14 13 14 17 19 17 15 18 22 24 26 29 30 29 25 23 25 27 28 27 26 26 23 23 24 26 30 33 31 34 36 34 34 32 31 31 29 28 24
17 17 16 11 12 10 10 10 10 13 15 14 13 13 11 12 13 16 20 21 14 16 19 22 24 27 28 27 26 24 23 22 21 20 19 20 21 22 26 28 31 34 36 37 37 35 33 32 31 31 31 29 26 24
15 13 8 11 10 9 11 12 11 11 10 10 11 10 10 11 13 20 24 22 15 17 18 19 21 22 22 21 22 20 20 23 24 26 24 26 29 31 32 33 33 35 36 36 34 32 32 32 31 31 31 28 25 23
11 9 6 6 8 12 11 9 9 11 10 10 9 10 11 15 20 19 25 16 14 15 18 21 23 23 24 27 28 29 29 29 32 33 30 31 32 33 33 34 33 33 34 34 31 31 31 31 31 30 29 27 25 24
7 6 10 9 6 5 6 7 8 8 9 12 16 18 17 16 20 20 16 12 17 25 26 29 30 29 29 30 33 36 36 34 30 28 28 29 29 29 29 30 33 33 31 29 29 31 31 30 29 28 27 26 26 26
10 11 9 8 7 8 10 12 14 17 18 19 21 21 16 18 23 23 27 32 35 35 32 32 30 28 29 30 32 34 34 31 29 29 30 32 33 31 32 32 29 29 29 28 29 29 29 29 29 29 28 27 25 25
15 14 13 12 13 15 18 19 20 21 22 22 25 28 31 32 35 38 40 41 41 39 36 35 34 35 35 37 38 39 38 36 36 36 37 37 34 31 29 28 27 28 28 26 25 26 27 27 27 27 26 26 25 25
16 17 19 21 22 24 23 22 24 22 24 27 32 36 38 39 41 44 45 44 42 41 39 38 38 38 38 38 37 35 33 30 29 30 29 30 29 28 28 27 26 25 24 24 24 25 25 25 26 26 25 25 25 24
17 17 18 20 22 21 22 26 28 29 30 30 30 34 37 37 39 43 43 42 39 36 34 35 34 34 33 30 27 26 27 27 26 26 25 24 23 23 22 22 22 23 24 25 25 26 26 26 27 27 27 26 26 25
16 18 20 22 22 21 23 25 27 26 24 26 27 28 23 24 29 35 37 35 34 33 34 34 30 27 26 27 27 26 24 23 22 21 21 21 21 21 22 22 24 25 25 25 25 26 27 28 28 28 27 27 26 26
11 16 19 21 22 21 21 22 25 26 26 25 22 16 17 21 24 28 29 28 27 24 24 24 24 21 18 14 14 16 16 16 17 20 21 21 21 21 22 23 24 26 27 27 27 27 27 26 26 25 25 24 23 22

GFSWCAN_700_spd_015.txt.gz
Wind_Speed
41 40 39 38 37 34 32 30 28 27 26 25 24 22 20 20 19 18 17 16 14 13 12 11 13 13 14 14 13 12 11 13 13 13 10 11 9 10 9 10 12 19 15 19 11 7 7 10 25 32 39 47 41 40
45 41 39 38 36 35 35 33 31 29 28 26 25 23 21 20 20 19 18 17 16 15 12 15 17 17 17 18 16 16 16 14 10 10 7 8 10 14 18 18 19 19 20 20 17 23 33 38 34 34 35 37 45 45
26 47 43 41 36 35 34 33 33 32 29 28 26 25 24 23 22 21 20 19 19 17 17 19 19 18 18 20 19 18 17 18 20 22 22 23 25 24 23 20 20 29 28 32 33 33 35 32 30 34 39 41 36 33
18 26 39 48 45 40 37 35 33 33 31 31 30 28 26 25 24 23 22 21 20 19 20 20 15 18 22 23 21 20 19 19 23 26 27 29 30 26 27 28 32 35 34 31 37 32 37 36 33 35 37 37 33 38
16 20 29 31 39 42 41 38 35 34 33 32 31 29 28 26 25 24 23 23 23 20 16 13 15 22 24 21 20 23 22 22 26 25 26 28 28 31 35 37 43 29 25 27 36 33 37 36 38 32 31 39 39 38
10 13 22 30 31 42 41 41 36 37 34 31 31 29 28 27 26 26 26 26 24 22 24 25 25 24 24 23 23 23 26 29 32 30 32 32 30 29 37 33 27 28 32 30 32 34 33 35 37 40 39 36 32 29
12 11 13 21 30 35 42 44 41 38 35 36 32 29 28 27 28 27 27 24 23 22 23 24 27 26 26 26 25 23 21 23 24 29 31 33 30 29 33 34 39 36 32 31 27 28 33 36 34 35 34 28 29 31
15 12 13 12 22 31 43 41 42 41 36 35 32 29 28 29 29 30 28 27 24 23 22 16 21 22 20 15 18 24 24 24 26 27 31 29 28 27 27 33 29 29 31 28 29 35 33 29 29 28 26 29 35 36
17 13 12 12 15 20 32 43 42 39 36 36 34 29 30 32 33 33 30 24 25 26 23 24 27 21 19 16 17 21 22 24 26 28 27 24 24 20 21 24 32 32 28 31 28 25 25 24 26 25 30 36 42 46
16 12 13 13 15 20 23 30 41 41 41 39 36 34 34 37 36 30 25 25 28 29 30 32 31 31 27 25 20 20 26 21 16 18 17 23 28 29 30 30 32 26 29 25 24 27 28 30 31 35 39 40 47 53
17 12 11 6 7 15 18 26 31 38 42 44 41 36 40 43 41 39 25 25 24 27 30 40 42 34 27 19 22 12 9 8 10 16 15 14 20 25 25 23 24 25 25 25 26 29 30 32 37 40 44 50 52 47
21 17 14 10 6 3 12 31 35 35 39 42 46 42 39 26 18 16 16 15 12 17 13 12 16 18 15 11 15 14 15 8 8 10 8 8 18 21 22 22 22 23 23 23 24 28 32 35 39 46 51 47 44 42
23 21 18 16 10 10 7 14 28 30 29 32 26 23 18 13 10 10 12 9 8 7 6 7 5 11 13 17 14 10 8 10 9 7 9 19 19 17 17 18 18 19 22 25 30 34 38 43 47 44 41 39 40 41
26 23 20 18 16 13 10 6 8 7 10 7 5 5 10 5 7 8 6 5 7 7 10 12 13 11 14 10 12 7 10 8 7 9 17 19 16 13 12 16 21 22 28 34 36 41 45 41 40 38 38 38 40 41
28 25 22 18 21 16 17 15 17 14 12 6 3 2 4 4 6 4 4 6 9 12 12 10 10 10 10 9 8 9 5 6 7 11 12 10 10 12 19 23 26 29 34 39 41 40 39 38 37 37 37 39 39 39
30 24 22 17 27 25 22 17 15 15 14 6 7 6 3 6 6 6 6 7 7 10 13 12 12 7 11 8 8 8 5 7 14 16 14 11 16 23 26 29 33 37 38 37 38 37 35 35 35 36 36 36 37 38
30 29 22 19 16 20 22 20 17 16 11 8 9 10 8 5 4 5 6 8 7 9 11 10 7 9 7 8 9 13 21 23 20 16 13 18 27 31 32 34 34 34 36 33 31 31 31 31 32 33 36 36 35 37
34 28 24 21 23 23 21 20 19 14 12 13 11 10 9 9 10 10 10 9 9 9 11 14 13 14 9 13 19 20 17 16 16 18 27 31 33 35 34 32 33 32 31 30 30 29 30 30 28 29 34 37 36 35
33 29 26 23 19 19 18 16 17 9 14 14 12 11 10 11 12 12 11 11 12 12 16 19 13 16 19 20 22 20 21 23 25 31 35 37 36 34 33 32 31 30 30 28 28 29 29 28 28 31 35 37 35 34
32 30 26 24 23 22 18 12 19 20 10 11 10 10 10 11 12 13 14 14 15 17 21 23 24 23 21 21 22 24 27 30 33 34 32 31 31 34 33 31 28 28 28 26 27 27 28 29 31 34 35 34 33 32
34 33 32 29 27 19 14 9 10 9 11 12 10 10 11 11 13 14 15 17 20 24 25 21 20 19 22 25 27 28 29 29 29 31 33 35 33 33 31 30 28 29 27 25 26 28 30 32 34 35 34 32 31 31
28 28 29 22 25 20 16 12 10 10 9 6 6 9 10 12 13 15 17 20 23 20 19 18 17 18 19 21 24 27 29 30 31 30 29 29 30 31 30 28 26 25 24 26 30 34 34 35 36 36 33 32 32 30
28 26 22 20 17 16 12 16 13 10 7 8 8 11 12 12 14 16 19 20 16 11 14 17 17 19 21 23 25 27 28 28 28 28 28 28 28 26 25 23 23 25 28 30 34 35 37 36 35 33 32 33 32 29
17 19 19 13 12 10 11 10 12 13 14 14 13 13 12 13 13 15 20 19 12 13 16 18 19 21 21 22 23 26 26 24 25 25 25 26 27 28 29 30 30 32 33 33 33 34 35 35 33 31 32 32 31 30
17 13 8 10 9 9 10 11 11 12 13 10 11 10 10 10 13 17 21 18 17 14 16 17 17 21 24 25 27 27 27 29 31 32 29 28 34 33 29 26 28 30 31 30 30 33 33 31 29 30 31 30 29 29
11 7 6 6 8 11 10 8 10 12 12 10 7 8 7 10 15 16 23 17 19 20 17 20 26 28 28 29 29 29 30 32 34 36 33 32 31 27 26 26 26 26 27 29 31 31 29 28 29 29 28 27 28 28
9 5 10 8 5 4 7 8 7 5 5 6 9 10 11 10 14 16 16 17 16 18 22 26 33 37 36 35 36 36 31 31 32 33 33 33 30 30 31 32 32 32 31 31 30 29 29 29 28 27 27 27 28 29
5 5 5 5 5 6 8 6 6 8 10 13 15 16 10 13 16 19 21 25 31 35 39 42 42 43 41 39 38 37 36 38 39 39 37 35 33 33 33 32 30 29 29 28 28 29 29 27 27 27 28 29 29 29
4 4 3 3 5 7 10 11 12 14 15 18 21 23 26 28 32 34 37 39 42 44 46 46 45 43 40 39 38 39 39 39 40 38 34 30 26 26 27 28 28 26 26 27 26 25 25 26 27 28 28 29 29 29
6 7 10 11 13 14 14 16 18 19 21 23 25 28 29 31 35 35 37 39 41 41 42 44 44 42 37 35 35 34 33 32 30 27 26 26 26 25 26 25 22 21 21 22 23 24 26 26 27 28 28 29 29 30
15 13 13 14 15 15 16 20 23 24 26 26 25 26 24 27 31 34 31 27 28 30 29 29 31 32 32 32 31 30 27 26 26 24 25 25 24 23 22 22 22 23 24 24 25 25 26 27 28 29 29 29 28 28
14 15 17 19 17 16 18 21 24 26 24 22 20 21 24 26 26 25 24 23 24 25 25 24 26 28 26 25 24 24 23 23 23 22 21 20 17 18 20 21 23 24 24 24 26 28 28 27 27 27 27 27 26 25
11 10 13 19 20 19 19 19 22 25 25 24 25 23 18 19 23 25 23 22 23 22 18 20 23 19 16 15 15 17 17 18 18 18 18 18 19 20 21 23 24 26 27 27 27 26 26 26 26 25 25 24 24 24

GFSWCAN_700_spd_018.txt.gz
Wind_Speed
30 38 37 35 34 34 35 35 33 31 28 25 23 22 21 19 18 17 16 15 14 13 11 12 13 13 13 14 14 12 12 14 11 10 7 8 9 11 10 13 11 11 7 8 6 8 8 5 22 19 24 35 39 39
35 36 36 37 34 33 32 32 33 32 30 27 25 23 21 20 19 18 17 16 15 14 11 14 14 15 15 16 16 16 16 10 9 8 8 7 11 15 15 12 15 16 12 11 12 18 21 28 29 29 34 38 35 37
37 37 37 37 37 35 34 32 31 31 30 29 27 25 23 21 19 18 17 17 17 16 16 16 16 16 17 18 18 18 18 18 16 15 16 18 20 22 22 18 19 22 23 25 31 31 20 21 27 34 37 40 33 35
16 28 40 42 37 36 36 35 33 32 31 29 28 26 25 23 22 20 20 19 18 17 18 17 14 18 20 21 20 19 20 20 19 19 20 22 26 22 25 22 25 25 25 33 31 29 24 19 31 34 36 36 30 33
10 15 28 41 39 36 37 35 33 33 31 30 29 28 26 25 24 23 22 21 20 19 12 16 21 23 22 20 18 18 21 25 22 23 25 28 30 27 29 27 34 30 25 28 27 25 28 29 36 33 30 37 31 28
4 7 14 24 43 40 38 34 32 32 32 31 30 30 29 28 27 25 24 24 23 22 23 25 24 25 23 21 20 17 22 23 28 28 31 33 32 24 23 30 32 28 30 28 33 33 29 33 25 34 31 26 26 25
7 5 9 14 23 34 48 43 39 35 33 30 31 31 30 28 28 27 27 25 24 23 23 22 25 27 27 25 23 22 22 24 28 30 35 32 27 26 31 40 37 35 34 31 26 27 33 28 31 27 26 28 26 28
11 10 8 10 14 25 33 39 40 38 37 34 33 30 30 29 30 30 28 26 24 21 21 16 16 17 16 15 17 19 21 22 28 31 31 28 23 26 34 33 34 30 29 25 22 29 30 28 24 24 26 26 29 34
17 14 13 10 11 16 26 30 36 39 38 36 34 34 33 32 33 32 28 26 25 25 22 29 31 23 21 20 19 20 23 25 28 28 28 25 27 23 29 29 29 27 24 27 28 25 20 19 22 25 27 32 38 43
20 16 16 14 11 10 20 27 31 38 40 39 37 38 34 35 31 29 26 26 27 29 31 35 31 26 22 18 19 19 22 19 17 21 21 26 32 30 28 29 27 26 26 20 20 19 20 22 26 33 36 38 42 47
20 18 16 16 13 11 13 20 27 34 41 38 41 42 35 27 32 32 25 16 20 26 32 42 41 30 27 25 23 18 14 10 9 14 16 12 23 23 22 21 20 19 18 18 19 21 23 28 34 36 39 43 40 40
20 18 16 15 12 10 11 14 23 26 41 48 46 47 46 35 21 19 18 19 14 25 21 22 26 26 25 24 23 13 11 7 8 10 9 10 18 17 16 18 17 15 16 17 19 21 27 32 35 39 39 38 38 36
21 21 17 15 10 9 6 14 16 20 27 39 41 36 29 18 14 14 15 21 23 14 19 18 19 22 20 17 9 7 6 9 8 8 9 17 18 17 13 11 10 12 16 18 21 27 31 36 37 37 37 34 34 35
23 23 20 16 11 10 6 11 20 13 16 24 19 20 16 8 11 10 13 15 18 18 20 16 11 8 9 8 9 7 10 8 7 8 16 21 16 9 7 9 13 16 20 23 28 33 37 35 36 33 32 31 33 34
21 23 22 17 15 14 10 9 11 8 10 6 6 3 8 10 10 12 13 11 9 7 5 4 5 8 10 9 9 8 5 7 7 9 11 8 6 7 10 14 17 21 26 30 35 34 34 33 32 31 29 29 30 32
23 24 25 19 13 18 17 16 10 11 2 3 4 7 8 8 5 6 6 5 4 5 5 8 8 7 11 7 9 9 7 9 14 13 12 13 12 13 17 20 24 28 33 33 33 34 33 32 33 31 29 28 29 31
26 28 23 20 17 22 24 14 15 15 4 6 7 5 3 4 4 2 1 3 3 7 12 10 8 10 7 7 9 12 19 20 19 19 19 18 17 20 25 28 31 33 31 32 33 33 33 32 31 32 30 28 31 34
24 31 23 22 19 22 25 20 16 12 11 9 9 8 7 6 5 6 7 8 8 10 12 14 12 12 8 11 15 17 15 15 16 18 19 22 27 29 33 34 31 29 31 33 32 31 30 29 30 32 32 32 34 37
24 29 26 23 20 18 19 22 19 12 12 11 9 8 9 9 10 12 12 11 11 12 15 18 11 13 14 16 15 14 14 16 20 25 28 29 31 31 31 30 32 33 33 32 30 29 29 29 29 30 32 34 36 35
23 32 27 24 22 22 18 11 20 17 7 9 9 11 12 11 11 10 11 12 12 16 19 21 19 15 14 15 18 20 21 23 25 26 26 26 26 29 31 32 32 31 32 30 29 28 28 28 29 33 35 37 37 35
27 29 28 28 26 22 15 10 14 10 14 12 8 10 11 12 13 14 15 16 19 22 20 16 13 13 17 18 18 19 19 19 21 25 27 29 29 29 29 29 31 31 30 30 28 27 26 29 33 35 36 37 35 32
33 34 34 29 26 26 21 12 12 10 10 7 9 10 11 13 14 15 16 19 21 17 15 14 15 15 14 15 16 18 20 23 25 26 27 28 28 28 28 27 26 27 26 26 27 29 31 33 36 36 36 35 33 30
30 34 37 37 30 19 14 15 12 10 7 8 10 11 13 13 14 15 18 18 13 10 12 13 14 14 15 16 19 21 22 23 23 25 26 26 26 27 27 28 29 32 33 32 33 35 34 33 33 34 35 33 30 30
29 25 26 22 14 13 10 11 10 12 13 12 11 13 13 13 13 15 19 15 9 11 12 14 14 15 17 16 19 22 24 25 26 27 27 28 30 31 32 33 35 34 32 31 32 32 32 31 31 34 34 32 31 31
18 13 9 11 13 10 10 10 11 12 13 11 11 12 10 9 11 15 15 10 10 10 9 13 16 17 17 22 24 26 27 29 30 30 31 32 34 34 33 32 33 31 30 29 30 31 32 32 32 32 31 31 30 29
11 6 8 9 11 11 11 10 12 14 12 10 9 10 10 11 10 8 12 11 12 11 16 21 23 23 25 28 32 34 35 37 39 39 36 34 33 34 34 34 33 31 30 33 34 34 34 32 29 28 29 28 27 27
7 5 10 9 8 7 8 10 9 8 10 11 12 11 8 7 7 9 12 13 17 19 21 23 25 28 33 37 42 46 46 45 44 42 40 37 37 37 38 37 35 33 31 31 31 30 29 28 28 28 27 27 27 28
7 9 10 8 8 7 5 6 7 8 8 9 11 11 8 7 10 14 18 23 26 29 31 35 40 44 47 48 49 49 48 45 42 40 39 37 37 37 36 33 30 28 27 27 28 27 26 25 25 25 26 27 28 29
7 6 7 8 8 7 7 8 9 11 12 13 15 16 19 23 25 27 29 31 34 36 36 36 38 38 37 38 40 41 40 35 34 35 34 32 32 32 28 27 27 25 26 25 24 22 23 24 26 27 28 28 29 30
5 3 5 8 9 10 11 12 13 15 17 18 19 21 23 27 29 31 32 31 31 33 33 31 31 32 33 31 29 30 30 28 28 29 27 27 27 27 27 27 26 25 22 20 21 22 24 25 26 28 29 30 30 30
9 9 9 9 9 9 12 15 18 20 21 22 22 24 26 29 29 29 28 30 30 27 27 30 32 29 24 22 22 23 23 23 24 25 26 26 26 26 26 26 23 20 20 21 22 23 24 26 28 29 29 28 28 27
8 9 11 14 17 16 16 16 19 21 23 23 23 23 24 26 28 31 28 23 24 26 27 26 26 28 29 29 27 23 20 19 18 19 21 22 22 23 22 21 21 21 21 22 23 25 26 27 28 28 27 25 25 24
11 10 10 12 15 18 19 21 23 23 22 22 23 23 22 22 23 22 21 25 28 29 26 28 32 32 31 29 27 26 25 25 25 24 24 24 24 24 24 24 23 22 22 24 24 24 25 25 24 24 23 24 24 25

GFSWCAN_700_spd_021.txt.gz
Wind_Speed
36 35 37 38 40 38 37 35 33 30 26 24 21 19 19 19 18 17 15 14 14 15 14 19 19 17 16 16 15 16 15 16 15 13 10 10 9 8 8 7 10 8 7 8 8 7 8 4 11 15 21 26 23 32
34 39 35 37 37 39 38 35 34 32 28 26 23 21 20 19 18 17 16 15 15 15 11 15 15 16 17 19 16 16 16 11 12 11 13 9 9 10 11 7 8 10 13 10 9 10 15 25 23 25 34 31 35 38
38 37 39 36 35 34 35 35 35 33 30 28 26 23 21 20 19 18 17 16 16 15 15 15 17 17 17 17 18 19 19 20 18 19 16 17 16 15 15 17 15 19 16 24 21 21 20 25 24 31 36 30 35 35
43 33 36 38 34 34 32 31 32 32 31 30 28 26 24 22 20 19 18 17 17 16 18 16 16 20 19 19 19 18 20 19 21 22 23 22 21 17 19 20 20 22 17 23 24 26 27 30 23 28 35 34 28 33
19 29 33 38 35 35 33 32 31 29 29 29 29 28 27 25 23 22 21 20 19 19 11 17 22 21 20 19 18 18 20 23 23 23 25 25 25 27 31 31 34 27 21 23 29 26 34 32 39 33 30 30 30 26
6 12 23 34 35 33 34 34 32 30 30 29 28 27 27 26 25 23 23 23 21 21 22 22 22 20 17 18 17 22 25 27 25 24 27 28 31 27 23 30 33 25 16 19 28 33 30 35 29 27 27 25 25 27
9 9 8 15 29 39 37 35 35 33 31 30 29 28 28 27 26 26 26 24 23 23 23 23 25 28 26 25 24 25 26 27 26 28 31 30 30 26 34 39 34 27 28 32 31 27 29 20 24 25 24 25 26 27
8 6 6 10 16 22 36 39 36 32 30 30 29 29 29 28 29 28 28 26 24 22 23 18 16 19 21 23 24 27 29 29 31 32 34 33 29 29 35 40 29 30 28 27 25 23 22 24 24 21 23 23 27 31
12 10 8 6 7 13 21 33 40 37 35 32 29 28 29 31 33 29 27 26 27 27 24 29 30 26 24 22 20 20 23 26 28 29 30 31 32 27 26 27 27 27 27 26 25 25 25 19 19 21 23 29 34 37
17 15 14 10 8 8 11 20 28 34 40 34 34 33 36 37 33 27 27 27 30 32 35 39 36 30 24 21 21 21 22 19 18 23 22 27 37 35 31 31 29 28 26 24 24 20 16 17 20 24 30 34 37 37
18 17 16 15 13 11 9 12 20 29 33 35 36 38 43 40 33 29 27 24 28 34 38 44 43 38 31 27 25 20 20 13 13 19 18 15 28 24 19 22 20 19 20 20 17 16 17 22 25 31 34 35 35 37
18 17 16 15 14 14 13 10 15 23 32 39 40 41 32 27 20 22 19 21 18 27 32 24 29 28 33 34 32 30 25 11 10 13 10 9 16 15 13 14 14 16 18 18 16 18 22 24 29 33 34 35 36 34
16 17 15 13 12 13 13 12 14 19 27 33 41 37 28 17 14 13 17 17 25 24 21 25 26 23 26 30 26 15 11 10 9 8 8 7 17 15 13 13 15 17 18 15 18 22 25 28 32 33 34 33 33 33
15 16 16 12 11 11 9 9 11 13 16 20 18 15 15 7 10 12 15 21 25 26 24 18 23 27 26 23 12 8 10 7 6 6 8 13 12 14 14 13 12 15 16 18 22 26 28 32 32 32 32 32 33 32
20 19 19 16 13 12 8 6 9 9 9 11 8 6 7 8 9 11 14 14 16 16 17 21 26 17 13 8 7 7 5 5 5 4 9 9 9 9 9 12 15 16 18 23 27 31 32 31 33 33 33 33 32 32
22 17 18 19 15 13 13 9 5 8 7 6 4 5 12 8 8 11 11 10 12 12 10 8 6 4 6 5 5 7 4 3 8 15 12 10 10 11 12 15 16 21 26 30 33 32 32 33 34 34 33 31 31 30
22 19 18 20 17 14 13 9 16 11 4 5 8 6 10 9 10 5 7 9 9 8 8 4 2 5 3 4 5 6 16 20 16 13 15 14 13 15 17 20 25 29 33 32 30 32 35 35 35 33 31 30 31 30
17 21 20 20 19 16 15 18 7 7 7 6 7 6 6 6 4 4 4 2 1 2 3 11 8 10 7 9 14 15 13 12 14 15 17 20 20 22 25 29 30 30 30 31 33 33 33 34 34 31 30 30 31 33
17 22 21 21 21 19 16 15 18 9 10 9 9 7 9 9 9 8 8 8 8 9 13 18 10 11 13 17 19 18 17 16 18 21 23 22 23 24 26 27 29 29 29 29 30 30 31 31 31 30 29 30 32 35
17 16 19 23 21 22 25 15 17 19 12 12 11 12 10 11 10 12 13 13 13 15 17 18 18 16 17 19 19 21 22 19 20 21 21 21 23 25 25 25 26 28 29 28 28 29 28 27 25 26 28 33 36 38
20 22 26 26 24 26 24 10 13 12 16 9 12 13 13 14 14 14 14 14 17 20 19 16 13 15 19 20 19 17 16 16 17 20 21 23 24 24 25 26 27 28 28 29 29 29 30 31 32 32 34 36 36 36
20 24 29 27 24 21 23 12 10 9 11 11 15 14 13 14 15 15 15 18 19 15 16 14 15 17 16 13 13 14 15 18 20 22 23 24 25 26 26 28 29 29 30 32 33 35 35 34 33 33 34 36 35 35
20 28 30 30 24 17 12 15 12 12 11 10 11 12 14 15 15 14 17 14 12 11 11 11 12 12 13 14 14 16 17 19 21 25 27 28 28 28 29 30 31 34 35 35 36 35 34 32 31 32 32 33 35 36
17 25 26 23 22 18 16 19 19 15 14 13 12 14 14 14 14 15 18 14 9 11 12 12 13 14 14 15 18 19 21 24 27 29 31 31 32 32 32 34 36 36 34 32 32 34 33 32 32 34 36 37 38 35
26 20 11 11 18 18 16 14 15 16 17 14 14 14 12 11 12 14 12 10 11 12 12 12 12 14 16 20 22 25 28 32 33 35 36 38 42 46 45 40 39 38 37 36 35 35 35 35 36 37 36 35 32 30
11 7 9 12 13 12 14 14 15 15 13 12 11 11 10 10 10 6 8 12 12 12 12 14 17 20 22 25 29 31 34 37 40 45 49 48 46 47 47 45 41 38 37 36 36 35 34 33 33 32 31 29 28 29
6 6 10 12 13 15 14 14 12 11 12 11 13 11 10 7 7 13 13 15 16 15 19 22 24 27 30 33 36 39 44 46 45 44 43 43 44 42 40 39 38 38 37 36 34 31 29 29 29 28 26 25 25 27
6 8 10 10 9 9 7 7 8 9 9 10 10 8 6 7 13 16 15 16 18 22 25 29 33 36 39 40 41 42 40 38 38 39 39 37 34 32 32 33 35 34 32 30 30 29 28 27 25 23 23 24 26 29
9 9 9 8 7 7 6 7 8 9 9 10 11 14 18 20 21 23 24 26 29 32 34 35 34 34 37 36 36 39 38 37 36 36 34 31 29 29 30 30 30 30 31 30 30 30 28 24 22 23 24 26 27 29
7 7 6 7 8 9 10 10 11 12 14 16 19 20 22 24 26 27 29 31 32 33 32 32 33 32 31 33 35 35 33 34 34 33 31 29 28 28 28 28 28 28 29 30 29 27 25 23 21 23 24 26 29 30
6 7 8 9 10 11 13 14 16 17 19 20 21 23 26 28 29 30 31 30 30 30 33 30 28 30 33 33 33 34 34 35 35 34 32 29 28 28 28 27 27 27 27 26 24 23 22 21 21 22 25 26 28 28
6 7 9 11 13 14 17 17 17 17 19 21 24 25 26 28 29 29 30 30 29 27 26 27 31 32 33 35 37 36 34 33 33 34 33 32 32 32 31 30 28 26 25 24 23 23 22 22 22 22 24 25 25 24
8 8 9 10 12 13 15 17 21 24 24 23 23 23 25 26 26 25 24 22 22 25 28 29 32 35 36 36 36 35 34 34 35 35 35 35 34 33 32 30 28 26 25 25 23 22 22 22 22 23 22 22 21 22

GFSWCAN_700_spd_024.txt.gz
Wind_Speed
37 38 40 40 38 36 33 31 28 26 23 21 19 18 17 16 15 14 13 13 14 15 12 18 18 18 18 13 15 14 15 17 16 14 11 11 10 11 11 7 8 6 5 6 6 7 9 1 8 12 13 23 28 33
36 35 36 39 38 37 35 32 29 27 25 22 20 18 17 17 16 15 15 14 13 14 9 14 18 17 19 20 15 16 13 12 11 10 12 9 11 10 12 6 6 9 12 9 11 9 8 16 13 23 27 30 33 32
35 33 34 34 37 37 35 33 31 29 27 24 21 20 18 17 17 17 15 15 15 14 14 14 17 18 18 18 18 18 17 15 16 19 16 14 14 13 16 16 14 16 14 20 21 24 18 24 32 30 35 34 32 33
34 32 32 33 33 34 36 34 32 31 29 27 24 22 20 19 19 18 17 17 17 15 17 16 15 17 17 19 19 19 19 19 21 20 20 21 23 19 22 21 17 19 19 22 24 24 23 29 31 28 35 30 38 28
43 32 32 32 30 31 31 32 32 31 30 28 26 25 23 22 21 20 19 19 18 19 10 17 21 18 18 19 20 20 21 21 22 23 24 24 25 25 30 29 32 27 30 23 25 24 27 32 30 35 31 35 28 22
33 39 31 33 35 31 32 29 28 28 29 28 27 27 25 24 23 22 22 22 20 20 21 21 19 17 18 21 23 22 22 23 25 26 25 25 27 24 21 29 31 29 26 20 24 31 30 31 31 29 26 23 22 21
17 25 29 33 34 32 33 29 29 28 27 26 25 26 25 25 25 25 24 22 22 21 21 22 24 25 23 22 24 25 24 24 24 26 29 27 26 28 33 38 33 31 30 22 30 26 28 25 29 24 24 20 20 21
11 11 10 20 30 32 33 31 30 28 27 26 25 25 25 24 25 25 24 22 21 21 22 18 16 17 20 24 25 28 29 28 31 31 34 31 29 30 31 39 34 31 23 30 25 25 25 25 23 24 19 20 22 27
10 10 7 6 4 12 24 33 32 28 28 28 26 26 26 28 27 24 25 24 27 27 23 29 30 23 25 25 23 22 24 27 29 33 34 31 35 36 33 31 31 30 27 25 24 23 23 21 20 18 20 22 27 32
8 6 7 6 5 4 8 15 24 31 31 28 26 27 31 30 25 24 24 26 30 31 33 37 34 30 26 22 19 19 21 20 20 26 23 30 41 40 34 33 31 31 30 26 21 21 22 19 17 19 22 27 31 33
13 12 12 10 7 4 3 5 12 21 31 32 31 34 33 27 26 27 25 21 23 32 37 41 40 37 34 30 24 19 16 9 14 22 19 22 31 31 24 23 22 25 25 21 20 21 17 17 18 22 27 31 34 34
14 14 14 14 11 9 7 5 6 12 20 28 33 34 31 30 18 18 17 20 25 24 32 27 26 30 34 32 27 23 25 14 14 20 11 15 22 17 10 12 13 16 18 19 17 16 16 18 24 29 31 33 34 35
10 12 13 12 11 10 9 8 9 10 14 21 29 35 25 16 17 10 16 19 20 26 18 24 24 23 24 21 17 14 12 14 16 10 12 12 13 11 12 9 11 15 15 14 14 15 19 23 28 31 34 33 34 34
8 9 9 8 7 7 6 7 8 9 17 16 11 10 12 7 10 13 17 16 20 18 19 16 14 15 24 18 18 9 11 8 7 5 5 7 10 8 8 10 12 12 11 13 17 20 25 30 32 34 33 34 35 34
7 8 8 8 7 5 3 4 4 4 7 9 6 6 9 10 9 12 17 18 16 16 15 14 21 25 20 16 10 9 5 5 6 4 6 1 7 9 10 7 9 17 20 20 22 28 31 33 33 33 33 34 35 34
6 9 8 11 9 8 7 6 4 5 4 5 5 3 4 5 6 7 9 9 10 13 15 16 13 5 5 4 5 5 3 3 4 5 12 10 5 6 9 12 16 19 22 25 30 32 32 32 33 35 34 33 33 32
8 9 9 8 11 11 7 7 7 6 4 4 5 5 6 5 5 7 10 10 10 8 7 4 2 2 2 1 3 2 3 10 15 15 14 14 14 13 15 17 18 23 27 29 29 29 31 32 33 35 35 33 32 31
11 10 14 12 11 12 10 8 6 9 7 7 8 7 7 6 5 5 5 6 7 8 7 5 3 3 3 5 7 10 13 11 12 13 16 17 17 18 20 23 25 26 27 28 29 30 31 31 32 32 32 29 28 29
15 13 13 14 12 13 12 10 12 10 9 5 7 9 8 8 8 7 6 6 6 5 5 3 3 4 9 12 15 16 18 18 18 19 21 21 20 21 22 22 24 27 28 27 27 28 30 29 30 29 28 28 29 29
13 12 13 15 13 15 15 13 8 12 9 11 9 10 11 11 10 9 9 10 11 13 12 12 13 15 16 18 19 21 21 20 20 20 20 20 20 23 24 25 25 25 26 27 29 29 30 32 33 33 35 34 33 32
16 14 15 19 18 17 18 16 14 12 13 14 13 14 16 15 13 13 13 13 15 13 13 13 13 15 18 19 20 18 18 20 19 19 19 20 22 24 25 26 28 29 29 28 28 32 34 36 36 35 34 33 31 33
15 17 18 24 25 24 23 17 12 11 12 12 13 14 15 15 15 14 13 16 15 12 15 15 15 17 17 17 17 18 17 18 19 20 21 22 23 26 28 28 29 31 31 31 34 37 38 36 35 35 34 33 33 33
20 16 14 18 25 29 14 17 15 13 12 12 13 16 18 16 14 12 15 12 10 12 13 14 14 12 13 15 15 17 19 20 21 22 23 26 27 30 31 30 32 37 40 44 42 41 39 36 36 36 37 36 35 36
18 16 20 14 14 14 15 18 17 15 15 13 14 14 12 11 11 14 15 13 14 15 14 15 14 15 15 15 16 16 21 22 24 26 29 32 34 36 38 42 44 44 42 43 44 44 43 41 40 39 38 37 36 35
11 12 10 13 17 19 18 15 20 20 18 14 13 14 10 9 11 13 13 15 14 15 15 14 14 14 13 16 19 23 27 27 29 32 34 37 41 45 47 44 41 40 41 45 44 42 37 37 37 37 35 33 31 30
13 10 10 11 17 20 19 18 17 19 16 15 14 14 13 12 12 7 11 13 11 11 13 13 13 15 20 23 25 28 30 34 37 40 42 41 40 42 43 44 43 41 37 32 33 36 35 35 35 33 30 29 27 26
8 6 12 14 14 17 18 19 20 15 13 14 14 11 9 7 7 12 12 13 12 15 16 18 20 22 26 29 32 36 40 39 38 39 39 40 39 38 39 40 40 37 32 30 32 33 34 32 32 31 30 30 26 23
7 10 12 11 9 8 7 9 11 10 10 11 10 9 6 6 11 13 11 13 15 18 20 23 26 30 34 38 38 37 37 37 37 37 36 37 39 38 37 37 37 36 35 33 32 31 31 31 30 31 31 29 26 23
9 11 11 10 9 9 8 9 9 10 8 7 7 10 14 14 16 18 20 22 23 25 28 31 34 36 36 34 36 38 37 37 38 38 38 38 37 36 37 36 35 34 34 34 32 32 33 33 32 31 29 27 26 25
9 8 8 7 7 7 6 6 6 7 9 11 13 16 20 22 22 24 25 26 27 30 32 33 33 32 34 34 32 33 38 40 41 42 42 41 39 38 36 35 36 34 32 31 31 31 30 29 28 27 26 25 24 23
5 4 4 6 8 8 11 12 13 14 15 16 18 21 23 24 25 26 28 30 31 31 31 31 31 29 28 29 32 36 38 40 40 39 38 38 38 39 38 37 36 36 35 34 32 31 28 26 25 25 23 22 22 21
5 6 6 7 8 10 12 15 16 17 17 16 20 21 24 27 29 28 27 28 27 26 26 24 24 27 30 33 36 35 33 34 34 34 34 34 35 36 37 38 39 37 34 32 30 29 28 27 26 24 23 21 20 20
9 10 9 8 9 11 12 14 18 21 23 24 25 24 24 25 27 25 23 22 23 23 23 24 27 31 33 30 29 30 30 29 30 31 32 32 34 36 37 38 38 36 34 31 29 27 25 24 23 21 19 20 20 21

GFSWCAN_700_spd_030.txt.gz
Wind_Speed
45 40 39 41 45 37 34 32 29 27 25 23 21 20 23 23 20 19 17 15 15 15 17 23 21 21 19 19 17 17 18 19 18 17 15 15 12 15 16 16 13 11 10 12 12 10 10 10 8 16 19 21 21 24
45 41 37 40 43 35 33 31 28 27 25 23 22 21 20 19 18 16 15 14 14 15 14 19 20 18 18 17 16 16 16 13 12 11 14 12 13 13 17 14 18 16 21 16 15 10 17 22 23 23 22 22 29 30
40 39 36 37 41 35 32 30 27 26 24 22 21 20 19 18 17 15 14 14 14 12 12 16 19 19 17 15 14 14 14 14 14 15 17 14 14 14 17 18 20 20 20 23 26 27 26 25 25 26 25 29 28 29
38 38 35 32 39 38 32 30 27 25 23 21 20 19 17 16 16 16 15 15 14 13 13 14 17 19 19 19 19 19 18 16 15 16 17 18 19 17 21 21 20 20 21 27 30 31 30 29 28 30 28 30 30 35
35 36 36 32 33 36 33 28 27 25 24 22 20 18 17 16 14 14 14 15 15 16 9 16 15 17 18 19 19 19 18 18 19 20 21 21 22 24 27 28 30 25 27 30 34 30 32 34 29 27 27 29 34 31
34 33 34 33 31 30 33 28 26 25 24 22 20 18 17 15 14 13 13 14 14 15 16 13 12 17 19 18 17 19 20 21 22 22 24 26 25 26 22 31 31 26 25 25 28 27 27 28 28 27 28 30 30 34
42 32 32 33 32 31 30 30 29 24 23 22 21 19 18 17 16 16 15 14 14 15 16 15 16 18 16 16 16 18 20 22 24 26 28 28 29 30 35 38 33 30 29 30 29 29 30 29 27 27 31 32 26 25
37 34 33 31 30 31 30 30 30 29 25 22 22 21 20 19 18 18 17 17 17 16 17 11 10 14 14 15 16 17 20 23 26 29 30 29 30 31 37 35 32 28 26 27 26 27 26 28 28 32 25 22 22 18
38 30 28 30 30 28 27 27 27 28 28 26 24 22 21 21 19 19 19 20 20 20 19 19 20 18 18 18 18 19 20 24 28 29 30 30 32 34 33 33 31 28 27 26 26 24 26 27 33 25 27 18 14 16
38 41 33 28 30 30 26 25 26 26 25 24 23 22 20 19 18 17 18 19 22 24 25 24 22 20 19 19 19 19 21 20 20 22 19 26 36 34 30 28 29 27 25 25 23 26 27 34 26 18 12 12 16 20
22 24 22 28 30 26 24 25 26 26 25 24 23 22 19 17 17 18 16 13 14 17 22 27 26 26 25 25 23 20 15 12 17 18 18 20 28 29 26 23 21 22 22 21 24 26 28 29 13 11 13 15 19 25
17 16 15 15 14 12 14 25 27 26 27 25 23 22 21 18 16 12 13 13 13 14 16 16 17 18 24 25 23 23 24 12 10 11 10 10 22 17 17 17 17 20 20 22 24 21 10 8 10 12 15 20 26 31
13 14 14 16 17 14 10 8 12 23 24 25 23 22 14 14 15 11 15 11 13 16 16 14 13 14 17 15 12 11 10 12 14 8 7 11 10 10 11 10 10 12 16 12 12 8 8 11 16 22 25 28 32 32
10 11 12 12 12 14 14 14 11 11 17 20 15 13 11 7 11 13 17 20 20 19 15 14 11 7 12 11 12 6 10 8 7 6 5 6 9 11 7 2 1 1 2 4 7 12 17 20 23 26 29 32 30 29
12 11 11 11 10 10 10 10 11 11 13 12 8 6 10 9 8 6 10 12 14 14 12 11 14 19 14 12 9 9 5 4 5 3 7 9 4 2 2 1 1 5 9 12 15 19 23 25 27 30 28 28 28 27
13 11 10 10 11 10 9 10 10 10 11 9 9 6 4 6 6 7 8 8 8 9 10 11 12 7 12 7 7 6 4 6 6 5 4 6 2 2 4 8 10 12 14 18 21 23 26 29 28 27 26 26 28 30
9 9 9 8 8 8 8 8 8 8 6 6 8 10 7 7 6 6 6 5 5 4 6 7 6 8 4 4 6 7 6 7 5 4 4 7 9 9 10 12 14 16 18 21 26 27 26 27 26 26 28 30 32 32
5 5 5 5 5 5 6 6 7 6 6 5 5 7 8 7 6 5 4 4 6 6 8 10 8 9 5 5 2 4 4 8 11 14 14 13 12 12 13 15 19 22 23 23 24 25 25 26 28 30 33 35 37 37
3 4 4 4 6 6 7 7 6 6 7 8 9 8 8 7 6 5 5 6 6 6 6 6 6 4 3 3 3 8 10 9 8 10 13 14 14 15 16 18 19 20 22 23 23 25 28 30 31 33 36 39 41 42
7 6 6 6 6 8 8 6 9 9 10 10 8 9 11 9 8 8 7 7 7 5 5 4 5 5 6 8 10 11 12 12 13 14 15 16 16 16 18 20 21 23 23 25 28 30 33 35 37 39 42 45 45 45
10 10 10 9 8 10 10 6 9 7 11 12 12 14 15 13 13 13 13 11 10 9 10 11 10 10 11 12 11 13 15 15 14 14 15 15 17 19 20 22 23 25 28 32 36 39 41 43 44 45 46 45 42 41
10 11 10 10 10 11 13 12 10 11 11 11 12 14 18 18 17 16 15 15 14 13 14 14 12 12 13 13 16 18 17 17 17 17 18 18 18 19 21 25 28 32 35 39 42 44 44 45 45 45 45 43 42 41
10 10 10 11 11 10 11 13 17 14 11 12 13 13 14 17 18 16 17 16 17 15 15 15 14 14 17 18 18 18 19 19 18 17 17 18 22 25 29 32 36 40 42 43 43 45 45 44 44 43 42 39 37 30
10 9 9 7 8 10 14 15 17 17 17 16 16 16 15 13 14 15 17 18 17 15 14 15 16 18 19 19 19 19 19 19 17 19 22 25 28 32 36 41 43 43 44 45 46 45 45 44 43 42 39 38 34 35
8 7 7 11 14 12 15 14 17 21 21 19 20 19 12 12 12 15 17 17 13 14 16 17 17 17 18 18 18 18 19 19 21 25 29 33 37 41 43 43 43 44 45 46 46 46 46 44 42 41 39 37 36 36
6 6 6 7 12 15 17 16 17 22 23 21 18 17 16 13 13 10 14 13 15 14 15 16 16 15 16 17 19 20 22 25 29 32 36 41 44 44 43 44 44 44 45 47 49 48 45 43 42 40 38 36 34 33
10 9 11 14 15 14 16 17 17 21 22 21 21 19 15 10 9 13 13 12 12 11 13 13 14 15 17 20 23 25 28 31 35 39 42 42 41 42 42 43 46 47 47 45 44 44 44 43 42 40 39 36 34 34
17 19 19 16 15 17 17 15 17 16 15 14 14 13 8 8 10 11 8 9 9 9 11 14 17 19 22 25 28 30 34 36 37 38 38 37 38 40 42 43 42 41 40 39 39 39 40 40 39 39 37 36 33 32
15 16 14 8 11 11 8 7 8 8 8 7 7 9 10 10 10 10 11 12 14 16 18 20 22 24 27 29 31 32 32 32 31 30 31 34 36 36 36 34 34 34 36 36 37 39 41 42 41 41 38 35 31 30
4 4 5 4 3 1 1 2 4 6 6 7 8 9 10 11 12 14 16 18 20 23 24 25 26 29 30 31 31 30 30 29 31 34 36 34 32 31 30 31 33 35 35 37 37 39 37 39 39 36 32 29 28 28
5 6 5 6 5 5 5 6 6 7 8 10 12 13 15 16 18 20 21 21 23 25 27 27 27 27 25 25 25 27 29 32 35 33 30 30 31 31 31 33 34 34 36 37 39 39 40 35 30 26 24 21 21 22
5 6 7 8 8 8 8 8 10 12 13 15 16 16 17 18 20 23 23 22 23 23 22 21 21 22 24 24 25 28 32 31 29 29 30 32 31 31 31 33 33 35 36 37 37 37 33 28 25 23 20 18 19 19
9 9 10 10 10 9 10 11 14 16 17 17 19 21 21 21 19 16 16 17 19 20 20 21 22 22 23 24 29 29 29 30 31 32 33 32 31 30 31 31 32 33 33 32 31 28 25 22 23 22 20 18 18 17

GFSWCAN_700_spd_033.txt.gz
Wind_Speed
43 50 46 46 46 44 39 35 30 27 32 32 31 31 33 35 34 21 18 15 16 20 22 25 22 20 20 19 17 17 16 17 18 17 15 14 11 14 16 19 18 15 9 13 15 11 13 17 18 20 12 20 21 19
51 53 48 41 49 42 38 34 31 28 26 33 32 31 31 29 26 20 18 18 18 19 19 23 21 20 18 17 16 15 15 14 13 12 17 14 12 13 17 15 19 18 21 17 16 10 15 11 12 23 25 24 24 22
40 50 55 43 48 41 35 34 31 29 28 26 25 28 28 26 24 21 19 18 17 17 15 20 22 20 18 19 18 17 16 16 15 13 14 15 15 15 17 17 19 19 20 25 27 27 26 27 29 30 31 27 28 26
41 36 36 53 43 41 37 31 31 30 28 27 26 26 25 24 23 21 19 18 17 16 15 18 20 21 19 19 18 17 15 15 16 17 17 18 18 16 20 21 20 20 23 26 29 28 31 30 30 30 28 32 30 27
35 30 30 51 43 38 35 31 29 28 26 25 24 23 22 21 20 19 18 17 17 17 12 16 18 21 21 20 19 19 19 19 19 19 19 19 20 22 26 27 29 25 27 29 32 27 30 31 30 31 33 30 30 29
33 31 28 48 43 36 33 30 28 26 24 23 22 21 20 19 18 17 16 16 16 16 13 11 17 18 18 18 19 19 19 19 20 20 21 23 23 24 21 29 29 25 25 28 31 28 30 30 29 28 30 29 28 26
34 32 28 34 43 35 31 30 26 24 22 21 19 18 18 17 16 14 13 12 13 14 14 13 13 14 13 15 18 18 19 20 21 23 25 25 26 28 34 36 28 29 29 29 29 31 30 27 28 28 28 29 34 34
32 31 27 24 31 39 35 31 26 23 22 19 17 17 16 16 15 14 14 13 12 13 14 10 9 12 13 15 17 18 19 20 23 26 27 27 29 31 36 32 32 29 26 26 26 26 25 26 28 28 28 32 36 22
32 31 30 26 24 23 29 35 33 28 25 22 20 19 17 17 16 15 15 16 16 16 13 16 17 15 14 14 14 16 19 23 25 27 27 28 32 31 34 33 33 32 31 30 29 29 28 28 28 28 30 33 16 10
31 25 28 29 30 27 26 24 23 23 24 24 20 18 18 17 16 16 17 18 20 21 21 20 18 17 16 16 16 17 19 18 18 20 19 26 34 30 31 32 31 29 26 26 26 26 26 26 31 34 30 15 10 10
39 36 27 26 25 24 24 24 24 23 23 25 23 22 19 17 18 16 14 11 12 11 16 22 23 22 22 22 20 15 12 11 14 16 17 18 25 24 24 25 24 21 20 22 24 21 26 28 24 15 9 6 12 16
31 31 27 25 25 23 21 22 22 21 20 20 20 18 17 15 12 10 11 11 9 12 13 13 17 22 26 24 19 16 17 10 9 11 10 9 20 19 17 19 23 19 18 15 17 19 18 12 9 7 13 17 17 22
22 23 21 24 28 25 24 23 23 20 18 19 19 17 11 12 15 10 12 9 13 16 14 11 10 14 15 15 14 10 9 10 12 7 7 12 17 13 9 8 8 10 11 12 8 7 7 8 14 17 18 20 24 28
18 18 17 16 16 16 17 21 23 23 22 21 19 13 10 8 9 15 18 17 17 18 12 13 13 9 13 9 9 6 9 8 6 6 6 10 7 11 12 9 8 8 10 9 12 15 17 17 20 22 26 30 33 32
13 14 16 16 16 16 15 15 15 14 16 13 10 9 12 11 8 8 11 13 13 12 11 11 11 12 10 9 7 9 6 6 6 5 9 8 10 7 3 1 2 1 4 8 11 14 17 21 24 27 31 30 30 30
13 12 14 14 14 14 14 14 14 14 16 10 8 7 7 8 10 9 8 8 9 11 12 13 14 8 13 8 7 8 4 5 6 8 11 11 10 10 11 8 7 9 12 13 15 18 22 26 29 28 27 28 29 31
14 12 11 11 11 11 11 12 12 13 10 7 8 11 8 8 7 8 8 9 9 12 13 9 7 9 6 6 6 7 7 8 10 9 9 7 6 6 9 13 14 14 15 17 21 25 25 25 26 27 29 31 34 36
10 10 9 8 9 9 10 10 10 7 8 8 8 9 10 9 9 7 7 6 6 6 7 8 7 8 4 4 7 7 6 5 7 9 11 11 11 12 13 13 14 17 20 22 23 25 26 27 29 31 34 37 40 42
5 5 4 4 5 5 6 7 8 6 8 9 8 9 9 9 9 6 5 4 4 5 6 7 6 7 9 8 7 8 9 8 8 8 9 11 12 13 15 17 19 20 21 23 24 25 27 31 35 38 41 44 46 47
3 3 4 4 5 5 5 5 8 7 8 9 10 10 10 9 9 7 6 5 6 6 6 5 5 5 5 7 8 9 10 10 11 11 13 15 16 17 17 18 19 20 22 24 27 30 33 37 40 43 45 46 47 48
7 7 7 7 7 8 9 7 10 8 12 13 14 13 12 13 13 11 9 8 10 11 10 9 9 10 11 10 11 13 14 14 14 14 15 16 15 16 18 20 21 23 26 29 33 37 41 44 45 46 47 48 48 47
9 9 9 9 8 8 9 11 10 12 11 10 13 15 16 17 16 16 14 14 14 15 14 13 13 14 15 15 15 15 14 13 12 13 14 15 17 18 19 21 23 28 32 37 41 44 45 46 47 48 49 49 48 47
11 12 11 10 9 7 7 9 12 12 10 11 13 15 15 14 17 18 19 19 18 17 16 16 16 16 17 16 15 15 15 15 15 17 18 19 20 21 24 28 32 37 42 45 46 46 47 48 49 50 51 51 50 48
11 10 9 6 5 7 9 9 9 10 14 14 13 12 12 13 14 14 17 19 17 13 14 16 17 17 17 17 17 16 15 16 18 20 21 22 24 28 32 35 39 45 48 48 48 48 49 50 52 51 49 47 45 43
5 5 4 7 9 10 13 12 11 13 17 18 18 16 15 14 13 14 17 16 13 14 15 17 18 18 18 18 17 17 18 20 21 23 24 27 31 34 38 42 47 47 47 47 47 49 50 49 46 44 42 41 41 40
1 2 4 5 7 11 13 15 16 15 17 18 15 16 17 14 11 9 12 12 14 16 17 15 16 17 17 17 17 18 19 22 25 27 30 33 36 40 43 44 44 43 45 47 49 48 45 44 44 44 44 43 42 41
4 5 9 10 12 16 16 16 16 14 13 15 18 18 18 10 9 13 12 12 14 15 13 13 14 14 15 16 18 21 23 26 30 33 36 39 41 41 41 42 43 46 47 45 43 43 45 45 45 44 45 45 43 41
8 13 17 19 18 15 14 16 14 14 12 13 12 10 5 6 7 11 11 9 9 9 10 12 14 16 19 22 24 27 30 33 34 37 38 37 37 37 40 43 44 42 40 39 40 42 42 42 43 44 44 45 42 38
17 17 17 14 8 7 6 5 5 7 8 7 6 5 5 5 6 8 8 9 10 12 15 18 20 23 25 27 29 30 32 34 34 34 33 32 34 37 39 37 36 36 36 36 38 39 40 41 43 42 41 38 35 33
12 9 4 3 2 2 1 2 3 4 5 6 6 6 6 7 9 10 12 15 17 19 22 24 26 27 29 30 30 29 29 28 28 30 32 35 37 35 33 33 35 35 34 35 35 36 37 37 36 33 31 30 29 27
2 2 4 6 6 6 6 6 6 7 7 9 10 12 13 14 15 16 18 19 21 23 25 26 26 26 26 26 26 27 29 31 32 34 36 34 33 33 35 35 34 32 32 33 34 34 34 32 29 27 27 27 25 23
6 7 8 9 9 10 9 9 10 12 13 15 15 15 16 17 18 21 20 21 23 22 22 22 22 22 24 26 27 27 29 31 33 32 32 34 35 35 33 30 29 29 30 31 32 32 30 27 25 25 26 25 23 22
11 11 11 12 11 10 10 11 14 16 17 19 20 21 21 22 23 22 19 18 19 21 22 23 23 25 26 27 28 29 31 31 31 33 33 32 30 29 27 27 27 27 29 29 30 29 27 24 23 24 24 23 21 20

GFSWCAN_700_spd_036.txt.gz
Wind_Speed
52 50 50 47 44 41 39 35 32 33 34 33 32 33 35 38 38 34 22 20 17 17 28 28 23 21 21 20 19 18 18 17 14 18 17 15 11 13 14 18 17 14 9 11 10 9 11 12 15 16 15 14 16 26
41 45 46 44 41 39 36 33 32 35 33 31 30 33 36 43 42 38 34 23 17 19 25 24 21 21 17 18 19 16 15 11 11 12 16 15 15 16 16 16 18 15 19 14 13 9 16 22 24 20 20 26 28 30
42 43 46 42 41 37 34 32 33 32 33 31 31 33 34 32 37 14 14 16 17 18 19 23 23 20 20 19 17 17 16 15 16 16 16 14 15 15 17 16 18 18 18 23 24 24 24 24 25 26 29 29 31 29
40 44 43 45 44 37 34 32 31 34 31 32 32 32 29 26 25 19 19 18 18 18 16 23 21 22 20 19 18 17 17 16 17 17 18 19 20 17 18 19 17 17 22 26 28 27 27 25 26 27 28 29 28 28
43 42 43 42 41 36 34 32 31 31 35 31 32 31 29 28 26 23 19 18 18 18 17 18 20 20 20 20 19 19 17 17 18 19 20 20 20 20 23 23 24 23 24 26 28 23 26 26 27 27 29 29 29 29
46 38 40 43 42 35 33 32 31 30 26 27 26 26 27 24 23 22 20 19 19 19 9 16 18 20 20 20 19 19 19 19 20 19 19 21 21 22 17 22 24 24 25 28 29 28 29 29 28 28 27 26 25 24
33 34 42 40 38 33 32 30 28 28 27 25 25 24 23 22 22 21 20 19 17 16 15 10 9 16 17 17 17 18 18 19 20 21 22 24 24 25 28 29 28 28 28 27 26 26 26 26 28 27 26 25 24 27
27 26 43 47 41 38 31 31 29 26 24 23 22 22 21 20 18 17 15 13 15 15 14 9 8 11 13 15 17 17 18 19 22 24 25 25 27 27 30 30 30 29 28 27 28 29 28 28 28 27 27 27 29 30
30 29 45 42 41 37 33 30 27 25 22 20 18 17 17 16 15 14 14 13 13 14 10 10 12 10 10 13 14 17 19 22 23 25 24 25 27 22 27 31 31 31 31 31 30 30 27 26 24 24 24 27 29 29
29 28 26 41 41 37 32 30 27 23 21 19 17 16 14 12 12 13 13 13 14 16 16 14 13 14 13 14 16 18 18 15 14 17 17 23 27 27 28 30 30 28 25 25 25 25 23 22 21 25 24 27 20 14
29 26 24 23 23 26 30 30 29 30 28 26 23 19 16 12 13 13 11 8 10 9 13 17 19 20 19 18 17 13 11 9 9 14 16 14 20 21 22 22 21 22 21 20 21 19 17 17 21 21 16 13 8 14
30 27 23 21 22 22 21 19 18 20 20 19 19 17 16 14 11 9 8 8 8 9 10 12 16 20 23 21 16 12 14 9 8 10 9 8 19 17 17 17 22 21 18 16 13 14 15 13 11 9 9 16 20 23
27 28 23 25 23 23 25 22 18 18 18 17 17 15 8 10 12 8 11 9 11 13 12 13 13 15 16 18 12 9 8 9 10 6 6 13 14 15 15 15 14 11 9 10 8 7 8 9 14 19 22 23 24 25
32 32 26 21 21 23 19 20 18 19 18 17 13 12 10 8 8 16 17 16 16 12 9 9 11 8 12 10 11 6 8 7 5 6 8 10 9 10 11 13 14 11 10 10 11 14 18 21 20 21 22 26 29 29
16 17 15 14 19 20 20 22 24 23 20 16 9 7 11 12 10 8 9 13 15 13 12 11 10 10 8 6 6 7 5 6 6 7 9 8 10 11 8 5 6 5 6 9 11 14 15 16 18 22 26 27 28 29
14 15 15 13 12 13 13 13 15 19 21 11 10 6 7 10 11 9 7 7 7 8 8 11 10 6 11 7 8 9 5 6 7 10 9 10 14 11 11 8 5 8 11 11 11 13 16 20 22 23 24 26 28 30
13 12 12 13 13 13 12 13 13 13 9 5 7 9 8 8 10 10 11 11 11 12 13 9 7 8 6 6 7 7 7 9 8 7 8 9 9 9 11 11 10 9 11 13 16 19 20 21 23 24 26 29 33 35
12 12 11 11 11 10 10 10 10 7 7 8 7 8 11 10 9 9 9 10 10 11 12 12 10 8 5 5 6 8 9 7 6 8 11 11 8 8 8 10 11 13 15 17 18 20 22 24 27 30 32 36 40 43
9 9 8 7 8 9 8 9 9 4 6 7 7 7 9 8 9 8 7 7 8 8 9 8 7 7 10 11 9 7 7 6 6 7 7 8 10 11 12 13 15 17 18 20 22 24 26 29 33 37 41 43 45 46
3 3 2 2 1 1 2 2 5 4 4 6 7 8 8 7 7 7 6 6 6 6 6 6 8 7 6 6 6 8 9 9 10 11 12 13 14 14 16 17 19 21 22 24 25 27 29 34 38 42 44 46 48 50
3 3 3 4 4 4 4 3 4 4 6 7 9 10 10 11 10 10 10 9 8 7 7 8 8 8 8 9 10 11 12 12 13 14 15 16 17 17 19 20 21 23 24 25 28 32 38 43 46 48 49 50 51 52
8 8 8 8 7 7 8 9 8 9 10 10 11 14 14 14 13 13 13 14 11 11 11 12 12 12 13 14 14 14 14 14 15 16 16 17 18 20 21 22 23 24 27 32 37 41 45 48 49 49 51 52 53 53
10 10 9 9 6 3 4 7 8 10 8 9 11 13 12 13 13 13 17 18 16 15 15 15 16 16 16 17 15 15 15 15 16 16 17 18 19 21 22 23 26 30 34 38 42 45 47 48 49 50 51 50 50 48
11 10 7 3 2 2 5 5 6 6 8 11 12 13 12 10 10 13 16 15 14 14 13 14 16 17 17 17 17 17 18 18 18 18 18 19 20 23 25 29 32 36 40 43 45 46 47 48 49 48 46 46 47 46
7 5 4 4 4 7 8 8 7 6 7 10 12 13 12 11 12 13 15 14 10 11 14 16 18 18 17 18 18 18 18 18 18 19 20 22 25 28 30 34 38 41 42 42 43 44 46 46 44 43 44 44 44 44
5 5 5 7 7 8 9 13 10 10 12 12 9 10 13 12 12 8 12 10 11 13 13 14 15 15 16 17 17 18 18 18 19 22 24 26 29 32 36 38 39 40 41 43 45 45 44 41 41 42 43 43 44 45
3 3 5 8 12 14 15 16 13 11 10 9 11 13 13 8 7 12 12 11 11 10 11 12 13 14 14 14 15 16 19 21 24 27 30 33 36 38 39 39 39 41 43 44 42 41 41 41 41 42 43 42 42 40
8 11 12 14 15 14 10 9 10 10 8 7 10 9 4 4 4 7 6 6 6 7 9 11 12 13 14 16 19 21 24 27 31 33 35 36 35 35 36 39 42 42 40 39 39 41 40 39 40 40 40 38 36 34
13 13 13 10 5 3 4 5 5 6 6 6 6 5 4 4 5 5 5 6 7 8 10 12 15 18 21 24 26 29 31 32 33 32 32 32 33 35 37 39 38 36 37 38 39 38 36 36 37 37 35 33 32 32
9 6 3 4 4 2 2 4 4 5 6 7 7 8 8 8 8 9 10 12 14 16 18 20 22 24 26 28 28 28 27 27 27 29 31 32 34 36 36 35 35 37 36 34 31 31 32 33 33 32 30 28 29 29
2 3 4 5 6 6 8 8 8 9 9 9 10 11 12 13 15 16 17 18 19 21 23 24 25 25 25 24 24 25 26 27 29 30 32 34 33 33 34 34 33 32 30 29 28 29 30 30 30 28 26 25 26 26
8 8 9 10 11 11 11 11 12 13 14 15 15 15 16 17 18 20 20 20 21 23 22 20 20 22 24 24 25 27 28 30 31 31 30 31 32 32 32 30 29 28 27 25 26 28 29 29 28 26 24 22 23 22
14 13 13 14 13 12 11 12 14 16 18 18 19 19 19 19 20 19 17 16 16 17 20 22 23 24 25 26 27 28 29 29 29 29 30 30 29 29 28 27 26 24 24 25 26 28 28 28 26 25 23 21 20 20

GFSWCAN_700_spd_039.txt.gz
Wind_Speed
64 62 56 53 51 48 45 44 41 38 39 40 41 44 45 43 40 36 30 28 24 23 17 24 27 28 32 29 24 21 21 20 17 15 13 12 9 10 10 13 11 10 6 8 8 7 7 4 6 9 15 18 17 16
54 55 54 50 48 45 40 36 34 34 35 35 37 40 41 41 38 35 30 27 21 19 20 24 26 19 23 28 23 21 19 14 17 13 12 9 11 11 13 14 14 13 14 12 11 8 14 21 22 19 18 18 20 26
56 53 51 47 43 40 35 32 32 34 34 33 34 36 39 40 38 37 30 21 20 17 18 27 27 21 20 21 21 20 18 16 16 15 12 12 13 13 14 12 14 15 16 19 20 20 20 22 22 21 21 22 23 25
47 45 42 40 38 36 34 32 32 32 32 31 32 35 38 40 41 40 26 19 17 18 21 27 25 24 21 18 19 17 16 16 15 15 16 17 17 15 15 15 14 16 20 22 24 21 21 20 22 23 24 25 27 26
44 40 37 35 36 35 32 33 32 31 29 29 32 35 35 38 35 36 27 18 16 17 17 25 24 23 21 20 18 18 18 17 17 17 17 16 17 17 18 17 18 18 17 20 21 21 24 25 25 26 27 27 28 28
43 39 36 33 33 32 35 35 31 32 30 31 32 32 33 28 30 18 15 16 18 21 13 22 22 22 21 20 19 18 17 17 17 17 18 19 19 18 12 13 18 20 20 25 25 26 25 26 25 25 26 26 25 24
37 40 40 34 27 32 29 39 35 30 31 31 31 31 32 30 27 26 22 21 20 20 12 17 17 20 20 20 19 19 19 19 19 19 20 20 19 19 21 20 21 23 24 26 26 24 23 24 27 27 25 25 23 21
31 30 36 38 32 30 29 28 23 31 36 30 28 28 25 25 24 23 20 17 18 16 16 11 9 14 19 18 18 18 19 20 21 21 22 22 21 21 18 22 23 24 24 25 25 28 29 28 26 24 22 20 19 21
20 31 35 35 37 30 32 30 28 27 27 26 24 24 23 22 21 18 16 15 17 16 12 12 13 13 13 15 16 18 20 20 20 22 22 21 22 15 22 24 25 25 26 29 28 25 23 22 20 18 18 20 21 19
25 33 35 36 37 35 33 31 28 26 26 25 25 24 21 20 18 17 15 14 14 15 13 11 11 13 12 13 16 18 16 13 13 16 16 20 24 22 23 25 26 25 23 22 21 19 18 20 19 15 14 14 15 16
23 24 34 30 32 30 31 30 29 24 24 24 23 21 17 15 14 12 9 9 9 8 11 15 15 16 16 16 15 10 10 7 7 12 14 11 15 18 19 20 19 20 19 19 21 17 14 13 13 13 9 6 8 17
23 29 32 36 37 30 26 27 27 27 27 26 24 20 20 14 7 6 6 7 7 10 12 15 18 19 20 17 14 10 12 7 7 9 8 6 13 16 17 17 17 18 16 15 13 11 8 7 7 7 13 19 22 21
24 25 24 25 25 23 22 28 29 27 25 22 19 18 12 11 6 8 11 11 11 12 12 13 14 14 15 15 10 7 7 9 8 5 6 12 13 15 15 14 13 12 10 6 4 4 7 11 14 14 14 14 15 17
21 21 22 24 21 20 19 17 16 15 15 14 11 11 9 6 9 13 15 15 13 11 11 13 13 10 13 10 9 6 8 6 6 7 9 12 11 10 10 9 10 9 9 9 8 8 8 9 11 14 16 19 19 20
28 24 22 21 20 22 20 20 21 18 15 12 8 7 11 10 10 10 12 14 13 13 13 12 11 11 9 8 7 7 5 5 7 7 8 8 7 7 9 11 10 7 5 5 6 8 10 12 14 17 18 19 21 23
21 28 26 23 23 23 24 19 20 18 19 13 10 9 10 12 12 12 11 10 9 9 11 10 8 5 8 6 7 8 5 6 4 5 5 6 6 11 11 9 6 7 9 8 9 12 14 16 17 18 20 22 25 28
13 11 13 11 10 10 11 14 17 21 11 8 8 9 7 10 9 9 9 8 8 11 11 7 6 8 5 6 7 6 5 8 10 7 3 3 6 8 8 9 12 9 9 11 13 16 17 18 20 21 24 26 29 33
9 10 10 9 9 9 9 8 7 6 6 6 6 7 8 9 11 12 12 11 12 13 13 13 8 8 5 4 5 4 5 5 4 4 6 9 10 8 7 8 10 12 14 16 18 19 20 22 24 26 29 33 37 40
15 13 11 9 8 8 9 8 6 3 4 6 6 8 10 10 10 8 9 9 9 9 9 9 6 7 9 10 8 6 5 5 4 4 5 5 6 9 11 12 14 16 17 18 19 21 23 26 29 33 37 42 46 48
10 10 9 9 8 7 5 5 5 2 3 5 5 7 7 7 8 8 8 8 8 8 8 7 8 6 5 4 4 5 6 7 7 7 8 9 11 13 14 16 18 19 20 21 23 25 26 30 34 39 44 47 49 50
4 4 3 3 3 3 4 3 2 2 2 3 4 5 6 7 7 7 7 7 8 7 7 7 7 6 7 7 7 8 9 10 11 12 14 15 16 17 18 18 19 21 22 24 26 28 32 37 41 45 47 48 49 49
4 4 4 3 2 2 1 1 1 1 3 3 4 6 7 8 8 9 8 10 10 9 8 8 9 10 11 11 12 13 13 14 15 15 16 17 18 18 19 20 21 24 25 27 30 34 38 42 44 46 47 48 49 47
8 7 6 5 2 1 1 2 2 3 3 4 5 7 6 6 7 9 12 12 12 14 14 14 14 15 15 16 15 14 15 16 16 16 18 19 19 19 21 22 24 26 28 31 35 39 41 43 44 45 47 46 44 42
11 8 5 5 5 4 3 4 4 4 3 4 5 6 6 6 7 8 10 10 12 13 14 15 16 16 16 17 17 16 16 16 17 18 18 18 19 21 22 24 27 29 32 36 38 39 41 43 44 44 43 41 40 41
6 7 6 9 6 9 10 10 6 2 3 5 5 6 7 9 11 12 13 13 13 11 12 14 15 15 14 15 17 17 17 17 18 18 18 19 20 22 25 28 31 34 35 36 37 39 41 43 41 39 39 39 38 39
8 8 7 8 8 6 6 7 5 3 1 2 3 4 8 8 7 7 10 9 9 11 12 12 14 15 16 16 16 16 17 17 18 18 19 21 24 27 30 32 33 35 37 39 40 42 40 38 37 38 36 35 36 36
8 6 4 5 7 6 6 5 4 3 4 3 5 7 6 4 6 8 10 10 10 9 9 9 10 11 12 11 12 14 14 15 18 21 24 27 29 31 32 33 34 36 38 40 40 38 36 37 37 34 33 34 35 34
8 7 7 7 7 5 3 4 6 3 0 2 3 4 3 3 5 6 5 4 4 5 5 7 9 10 11 12 14 17 20 22 25 27 29 30 30 31 32 34 37 38 39 37 36 37 36 34 31 31 32 32 32 31
9 7 4 3 3 3 5 4 4 3 3 3 3 3 5 6 6 6 5 5 6 7 8 10 12 14 16 19 22 24 25 26 27 27 28 29 31 33 35 36 36 34 34 35 35 33 31 31 30 31 31 31 30 29
4 5 5 6 6 6 5 4 4 3 4 5 6 7 8 9 9 9 10 11 12 14 15 17 18 20 21 22 23 24 25 25 27 28 29 30 32 33 33 32 32 32 32 31 30 30 29 28 29 31 31 31 29 27
5 5 4 4 4 4 5 7 9 9 9 9 10 11 12 13 14 14 15 16 17 18 19 19 20 21 20 20 21 24 25 26 27 28 30 31 32 31 31 30 31 31 30 29 28 26 25 26 28 29 29 28 26 24
9 9 9 9 8 9 10 11 12 13 13 13 13 14 15 16 17 18 17 17 18 19 18 17 17 19 22 23 25 25 27 28 29 29 29 31 31 30 29 29 29 28 27 26 25 25 26 27 28 28 27 26 25 23
12 12 12 11 11 10 11 11 13 15 16 17 17 17 15 14 13 11 11 13 14 16 18 19 20 22 23 24 25 26 28 29 30 32 32 30 28 27 27 26 26 26 26 26 26 26 27 27 27 27 26 25 24 23

GFSWCAN_700_spd_042.txt.gz
Wind_Speed
31 36 35 38 34 35 45 52 59 57 53 54 55 55 55 52 50 45 36 31 29 25 22 27 33 34 34 30 28 26 21 21 20 18 15 11 9 12 11 11 7 7 6 7 7 7 5 1 5 6 12 18 16 15
28 41 46 41 58 58 54 51 49 49 48 50 53 53 53 50 47 40 31 30 27 24 19 23 29 27 33 29 28 23 24 18 20 18 14 9 10 10 13 7 10 10 13 9 7 4 9 16 14 16 19 21 20 20
57 65 59 51 50 48 45 43 42 42 44 46 49 51 51 49 44 36 28 26 27 22 20 21 28 27 27 32 29 26 22 21 19 21 15 12 10 10 11 12 12 12 12 14 14 11 13 19 20 21 22 22 23 25
54 53 51 47 44 42 41 40 40 41 43 46 49 48 46 43 39 36 32 22 24 24 23 26 26 27 20 24 29 28 22 20 16 17 17 16 15 13 14 12 11 13 15 16 17 17 18 19 20 23 25 26 27 28
48 45 44 42 40 38 37 37 39 40 41 42 43 44 42 41 38 34 32 25 29 21 19 30 29 25 22 21 21 20 18 18 18 18 17 17 17 16 15 14 16 17 19 17 18 18 20 22 25 26 26 26 25 27
41 40 39 38 36 34 35 36 37 37 37 38 39 41 42 39 37 34 25 27 17 10 19 30 28 27 24 20 20 20 20 19 20 19 18 17 16 15 10 13 16 18 19 18 20 21 24 26 24 24 25 27 28 27
36 35 36 37 36 35 32 32 32 33 35 36 38 39 39 35 26 27 27 17 16 12 13 22 25 26 25 25 24 21 20 19 19 18 18 18 18 17 17 16 19 21 22 23 24 23 22 21 25 28 27 26 24 23
31 29 27 27 37 38 36 34 35 33 33 35 36 37 39 34 32 22 25 19 17 15 14 12 13 23 23 23 22 21 20 19 19 20 20 19 18 18 16 21 20 21 24 24 23 23 25 27 25 23 21 19 19 19
28 26 20 17 35 37 35 36 35 34 34 35 35 33 33 32 30 23 22 17 19 16 14 12 13 13 22 22 20 20 20 21 21 20 21 19 19 14 20 20 21 22 22 23 24 22 20 20 18 18 18 14 14 14
23 25 22 33 31 35 33 45 42 36 35 35 32 32 33 28 25 19 21 23 21 19 15 14 17 15 14 19 20 18 16 15 13 17 18 22 23 23 23 24 24 22 19 17 17 18 18 16 12 12 11 10 9 8
17 20 26 29 28 25 26 30 42 35 32 34 29 29 24 23 25 21 13 15 11 12 18 16 16 17 16 15 16 13 10 7 7 13 14 10 16 19 21 21 18 15 15 14 14 11 9 8 7 6 6 6 8 11
19 23 27 34 34 29 30 29 28 27 29 29 25 26 28 24 11 7 13 13 10 12 13 19 19 18 18 17 14 12 12 7 7 10 9 6 19 18 16 15 13 11 10 8 6 6 6 6 7 8 8 9 8 9
21 23 25 27 29 32 34 36 36 31 30 28 28 25 18 11 8 10 13 12 12 10 14 16 17 17 16 15 11 8 8 8 7 7 8 15 14 13 12 11 7 5 5 5 5 6 7 8 8 7 7 9 10 11
17 19 25 28 26 24 27 30 30 31 27 24 16 13 8 7 10 9 15 14 16 17 16 15 15 12 14 12 9 6 9 7 6 7 10 12 9 8 7 8 7 7 8 8 8 7 7 8 9 10 11 12 13 16
15 15 21 20 22 19 21 24 21 22 22 12 8 7 13 11 13 14 15 14 14 14 13 13 13 12 10 8 7 8 6 6 8 8 5 4 5 7 10 11 12 11 9 8 8 9 11 13 13 15 15 17 19 21
19 18 18 19 19 21 19 17 16 17 17 8 6 8 12 13 13 12 12 15 15 15 15 15 11 6 10 7 8 8 5 6 3 4 3 4 6 9 13 12 11 10 10 11 12 12 13 15 16 17 18 20 22 25
21 19 18 19 14 15 14 15 18 19 11 8 9 10 9 12 12 12 12 12 11 11 13 9 8 8 6 6 7 7 6 5 5 4 3 5 7 9 10 10 11 11 12 12 13 14 16 16 18 19 21 23 26 30
11 14 16 13 13 13 17 13 14 9 11 13 13 12 11 11 10 11 12 12 12 13 13 11 7 8 5 5 6 5 4 4 4 4 4 5 7 10 11 12 13 12 12 14 16 18 18 20 21 23 26 29 32 37
12 11 11 9 8 11 12 10 8 8 11 12 11 11 12 12 14 13 13 12 11 12 14 11 7 7 10 9 7 6 6 6 4 4 4 6 7 7 11 12 13 14 16 18 20 21 22 23 25 28 31 36 40 44
15 15 14 13 12 10 7 8 8 8 12 11 11 11 11 10 10 10 9 8 8 8 8 7 8 6 5 5 6 5 5 5 5 6 7 8 9 12 13 15 16 18 19 20 21 22 25 27 30 33 37 41 45 47
9 9 8 8 7 6 8 8 8 9 11 10 10 9 8 8 8 9 8 8 8 8 7 7 6 6 6 7 7 7 8 10 10 11 12 13 13 14 15 17 18 19 20 21 23 26 28 31 34 38 41 44 45 47
4 3 3 3 3 5 5 6 6 7 6 7 7 6 6 7 8 9 9 10 10 10 10 9 10 10 11 11 12 12 13 13 14 15 16 16 17 17 18 19 19 21 22 24 26 28 31 35 39 41 43 44 45 46
4 2 0 2 3 4 4 3 3 3 4 4 3 3 3 4 6 7 8 10 13 15 15 15 15 15 16 16 16 16 16 17 17 18 18 17 18 19 19 20 21 23 25 27 29 32 36 38 40 41 42 43 42 40
5 0 3 3 4 6 5 5 4 3 3 2 2 2 1 1 2 3 5 7 9 11 13 16 18 17 16 16 17 16 15 15 15 16 17 18 18 18 19 22 23 25 28 31 34 36 37 38 39 42 41 38 38 38
4 5 6 8 7 8 8 9 6 5 4 4 3 1 1 2 4 6 9 10 10 10 10 11 14 16 17 15 15 15 13 15 16 16 15 15 17 19 21 24 26 29 32 34 34 35 36 39 39 37 36 36 34 32
8 7 5 6 7 5 5 5 4 4 3 3 2 1 2 3 4 4 7 7 8 7 9 10 11 11 12 12 13 15 16 15 15 15 17 19 21 23 26 28 31 32 32 33 34 36 37 35 34 33 33 31 29 30
8 6 5 4 3 2 2 2 4 6 4 3 1 2 1 2 2 4 8 8 8 8 8 8 8 9 10 12 12 11 12 14 16 18 21 23 25 27 28 29 29 31 33 35 35 34 32 32 31 30 29 28 28 29
6 3 2 2 1 3 5 5 6 4 2 1 1 1 2 2 4 6 4 3 3 3 3 4 5 8 9 10 12 14 17 19 22 24 25 25 26 27 28 30 32 33 33 33 31 30 30 30 29 27 26 26 28 29
6 6 6 7 6 6 6 5 4 3 1 1 2 2 3 4 4 4 4 4 5 6 8 9 10 12 14 16 18 20 21 22 22 23 24 26 28 29 30 31 32 31 31 30 30 30 29 28 27 25 25 27 28 28
8 8 7 7 5 4 2 1 1 2 3 4 5 7 8 8 9 9 10 10 11 12 13 15 16 17 18 19 19 20 20 21 23 24 26 27 29 30 31 31 31 31 30 29 29 29 28 27 25 25 26 27 28 27
6 4 2 2 2 3 4 5 6 7 8 8 9 11 11 13 13 14 14 14 15 16 17 16 17 18 18 17 18 20 21 23 25 26 28 30 31 32 33 33 32 30 29 28 27 26 25 25 25 26 27 27 27 26
8 7 7 7 7 8 8 9 10 10 11 11 12 13 15 16 17 18 17 15 15 15 15 14 14 15 17 18 20 22 24 26 28 30 32 33 33 31 30 29 28 27 27 26 26 25 26 26 26 26 27 26 26 25
9 9 9 7 7 8 9 10 11 13 14 15 15 16 16 15 13 10 9 9 10 12 13 14 16 18 19 21 23 25 28 31 31 30 29 28 27 27 26 26 26 26 27 27 27 27 27 28 27 27 27 26 25 24

GFSWCAN_700_spd_045.txt.gz
Wind_Speed
40 40 40 38 38 39 38 42 45 36 46 56 66 67 67 65 66 49 40 32 28 26 36 31 31 30 28 28 27 27 23 21 18 15 15 10 11 12 9 8 8 7 8 9 10 7 7 9 2 2 7 15 19 19
36 37 38 37 38 42 37 33 38 57 56 62 59 60 61 63 55 43 41 30 25 25 27 39 35 31 36 29 25 26 20 21 20 13 16 15 12 11 14 7 13 8 10 5 8 4 9 9 13 17 19 21 23 24
36 37 35 34 35 37 39 48 43 63 68 60 63 62 63 60 51 38 39 33 23 22 22 25 34 33 27 37 34 26 28 24 20 20 17 16 10 12 12 14 11 12 14 12 13 6 9 13 20 22 23 21 22 25
45 45 44 43 43 43 50 55 60 54 52 55 57 57 56 56 50 38 32 30 25 25 22 25 30 33 29 33 33 28 27 20 18 17 20 20 15 12 14 12 10 11 12 11 15 13 15 15 20 20 21 25 26 28
49 44 44 42 47 49 51 48 49 51 52 52 52 51 54 55 43 34 30 30 28 25 23 24 24 31 29 28 33 32 26 23 20 21 22 20 18 16 16 15 14 17 12 14 10 18 18 20 25 25 26 26 26 27
46 44 42 42 43 43 42 42 43 44 47 49 50 49 49 43 35 31 24 23 23 29 15 24 27 30 30 25 27 29 30 27 25 22 21 20 18 16 11 15 19 19 20 19 20 21 22 25 26 27 25 26 29 30
39 38 37 38 38 39 40 41 41 42 42 42 41 40 41 42 39 32 14 23 20 23 13 22 27 30 27 26 26 25 24 23 23 23 22 20 18 18 19 16 21 22 21 21 22 22 26 24 24 25 28 28 26 24
36 36 36 34 34 35 35 36 36 36 37 39 40 41 38 36 30 25 10 12 24 11 15 13 19 30 29 28 26 25 24 24 23 23 21 20 19 20 19 23 25 24 25 25 25 23 23 24 26 26 23 20 19 17
30 34 32 34 36 35 35 36 37 38 40 40 40 38 36 31 25 23 14 18 16 6 5 12 19 25 28 27 26 25 25 23 20 23 23 22 22 16 23 25 25 25 25 25 23 23 23 22 21 19 20 15 13 13
20 26 32 32 34 35 37 36 37 38 40 41 40 37 35 31 22 23 20 17 13 14 9 9 17 15 26 27 25 23 22 19 13 20 21 24 24 24 25 26 27 26 21 20 20 18 18 17 15 12 11 10 11 11
17 28 38 38 38 37 36 34 35 36 39 43 43 34 34 25 23 21 14 12 12 13 15 14 15 15 17 24 25 19 13 10 8 13 14 11 19 21 24 27 25 22 19 17 15 15 12 11 9 8 9 10 11 13
10 15 28 28 32 43 40 36 40 40 35 33 35 35 30 18 11 6 12 12 9 12 13 19 17 16 17 17 14 18 10 8 7 9 10 7 22 23 22 20 17 14 13 11 9 8 7 8 8 9 10 11 12 13
10 19 21 30 24 38 40 39 34 34 30 29 34 27 16 8 8 8 13 12 9 12 13 17 19 18 16 16 12 8 8 9 9 8 8 18 19 17 15 14 10 10 9 8 7 7 8 9 11 12 13 13 14 14
13 15 20 26 26 25 26 31 36 31 36 28 18 17 11 7 11 10 17 17 16 12 15 17 18 16 17 14 9 7 10 7 7 7 11 13 13 13 11 10 8 7 7 8 9 10 11 11 12 13 15 15 15 16
13 16 22 25 23 24 28 27 30 34 31 23 11 10 11 11 11 12 15 16 17 16 13 13 13 13 11 8 8 8 7 6 8 9 11 7 10 10 9 9 8 9 9 10 11 12 13 14 16 17 17 18 18 20
11 15 18 19 22 26 28 32 31 29 25 14 8 8 14 12 13 15 16 13 11 11 11 11 9 6 8 6 8 8 5 6 8 7 7 6 6 8 11 11 12 12 13 13 14 15 17 17 18 19 19 20 22 24
12 15 17 16 13 16 17 16 23 22 10 8 9 9 14 14 12 12 13 15 15 13 11 7 6 7 5 5 7 7 9 9 8 5 4 7 9 11 11 11 13 14 14 14 16 17 17 18 19 20 21 23 26 29
12 11 10 9 9 11 8 10 15 7 9 11 13 12 11 11 11 11 11 11 11 11 11 9 7 8 5 4 6 6 5 3 3 4 6 7 9 10 12 14 15 16 16 16 16 17 19 20 21 22 24 26 29 32
15 6 12 11 15 10 11 9 10 9 13 14 15 13 12 10 10 10 10 10 10 10 10 7 4 5 8 7 5 6 7 7 6 7 7 8 9 12 14 14 14 16 16 17 19 20 22 22 23 26 28 31 33 37
14 13 13 11 10 9 7 8 7 8 13 11 11 10 10 10 9 9 8 8 9 10 10 8 8 6 5 5 6 7 8 7 7 7 7 8 9 11 12 14 18 18 19 20 22 23 23 25 26 29 31 34 38 42
11 12 11 11 9 7 7 8 7 10 14 12 11 10 9 8 7 8 8 8 8 7 7 8 8 8 8 8 9 9 9 10 10 10 11 11 11 12 14 18 19 20 20 23 23 23 25 27 30 32 35 39 42 44
6 6 6 6 6 7 7 8 10 11 10 12 11 9 8 8 8 8 9 8 8 8 8 9 9 9 9 10 11 11 11 12 12 13 13 15 16 17 18 19 19 21 22 23 24 26 28 30 33 37 40 42 43 45
3 3 3 4 3 4 8 8 9 8 7 9 8 7 5 6 7 7 7 9 11 12 12 12 13 12 12 13 14 14 15 15 17 18 19 20 19 19 19 20 21 22 22 24 26 29 31 35 38 40 41 42 44 42
1 4 4 3 4 6 7 7 7 7 7 8 6 5 5 5 5 6 7 8 9 10 12 14 16 17 17 17 16 17 18 18 17 16 16 16 17 18 19 19 20 21 24 27 30 33 36 38 39 40 42 41 39 38
3 3 4 6 6 8 8 8 7 7 8 7 6 4 3 2 2 3 6 7 8 10 11 11 12 15 17 18 18 19 19 17 15 13 15 17 17 17 18 20 23 25 28 31 34 36 37 38 40 39 38 37 35 34
4 5 4 5 8 6 6 7 7 9 8 6 4 4 2 1 2 2 2 4 6 7 8 9 10 11 11 11 10 9 11 13 15 16 16 17 18 20 22 25 28 30 31 33 34 36 37 38 37 35 34 33 32 30
8 7 9 8 7 6 6 6 6 6 5 4 3 1 1 0 1 1 5 6 6 5 5 6 7 8 9 10 11 13 13 13 13 15 17 20 22 25 27 28 29 31 33 35 36 36 36 35 33 32 31 30 29 28
6 5 4 4 3 4 5 6 6 4 3 3 2 1 2 2 2 5 4 4 4 3 3 4 5 6 8 9 11 12 14 16 19 22 23 24 25 26 27 29 31 33 34 35 35 34 33 32 31 30 29 28 26 26
8 8 7 8 7 7 5 3 3 3 2 1 2 3 4 5 6 6 6 7 8 9 10 10 11 12 13 15 16 18 20 21 22 22 24 25 28 29 30 31 33 33 34 34 34 33 31 30 29 28 27 26 26 27
10 9 8 6 5 4 3 1 0 2 3 4 6 7 9 9 10 11 12 13 13 14 15 16 17 17 18 18 19 19 19 20 21 24 26 28 29 31 33 34 35 35 34 32 31 30 29 28 27 26 26 26 27 27
5 4 3 3 3 4 5 6 7 8 9 10 11 12 12 14 15 16 16 17 17 17 18 18 18 17 17 17 17 19 20 23 24 26 28 30 33 33 33 32 32 31 30 29 28 28 28 27 27 27 27 28 28 28
7 7 7 7 7 8 9 9 10 10 11 12 12 14 15 17 17 18 18 18 17 15 15 14 14 14 16 17 19 21 23 25 28 31 32 32 32 32 32 31 31 31 30 30 29 29 29 29 29 29 29 28 28 27
8 7 7 6 7 7 7 9 10 11 12 12 14 15 15 15 14 12 10 9 9 11 12 13 14 16 17 20 22 25 29 32 33 32 32 32 32 32 32 32 32 32 31 31 31 30 30 30 29 29 28 28 27 26

GFSWCAN_700_spd_048.txt.gz
Wind_Speed
31 33 36 42 44 47 35 39 42 44 46 46 50 52 56 73 72 75 46 29 29 27 27 48 47 35 37 30 36 33 29 27 24 20 16 11 11 13 10 9 11 8 10 12 13 7 8 12 11 5 11 10 14 21
30 32 40 45 48 44 40 37 38 41 41 41 42 42 66 63 77 76 46 22 20 19 45 47 45 44 39 33 28 23 21 23 17 16 13 12 12 15 18 11 12 9 10 6 8 3 9 8 11 12 14 21 21 23
31 32 37 42 39 38 37 34 38 38 43 47 36 50 67 68 76 57 29 28 7 15 31 34 34 36 35 29 29 25 23 19 20 16 13 13 11 15 14 16 10 11 13 13 12 8 8 10 15 22 20 20 20 22
29 31 34 36 36 36 36 37 39 45 48 39 47 58 63 76 49 38 32 24 17 17 25 36 32 30 36 32 27 25 26 22 19 14 16 15 14 13 14 10 12 12 12 9 11 10 12 17 23 23 20 20 22 26
30 31 33 34 36 40 40 44 37 34 41 51 57 69 74 63 63 38 37 30 22 17 19 32 37 36 33 29 33 29 26 23 20 17 19 19 16 15 13 13 14 15 12 15 13 18 21 23 23 22 24 25 26 26
31 29 31 31 32 35 38 49 49 43 52 55 62 74 67 61 37 22 12 20 17 18 18 25 32 35 35 33 28 31 28 22 25 22 22 22 18 17 13 16 17 18 18 19 24 23 25 26 25 26 26 26 25 27
49 49 51 52 48 52 54 48 42 53 60 61 61 60 58 51 31 16 29 27 22 16 12 20 21 29 34 32 29 29 34 33 28 25 24 22 21 19 19 18 18 19 21 22 22 23 23 28 26 25 25 26 28 26
37 38 39 42 44 43 40 44 49 49 44 44 47 53 54 38 33 17 28 29 16 17 18 11 15 27 31 33 29 31 32 31 29 28 27 24 22 21 20 21 23 23 25 24 24 25 26 24 25 24 26 26 25 22
31 33 34 37 39 40 40 40 41 42 43 45 43 49 51 31 34 12 12 5 7 17 17 9 19 25 30 31 30 26 27 27 24 26 24 23 23 17 20 24 26 26 28 26 23 22 23 23 23 23 21 21 17 15
31 31 33 33 34 36 37 37 37 38 38 37 42 41 40 33 10 12 12 16 12 12 4 5 19 24 33 32 30 27 24 22 15 21 20 25 26 26 25 27 27 26 27 23 22 22 21 20 18 18 16 13 11 12
30 34 32 34 35 34 35 36 36 37 36 37 43 30 23 25 20 18 10 10 10 4 8 9 14 11 29 32 30 23 16 14 9 14 17 15 24 25 27 29 29 29 26 23 20 18 15 14 13 11 10 11 11 12
36 28 31 32 34 35 35 35 36 38 37 33 34 24 27 16 7 6 10 7 7 9 8 14 19 19 20 23 16 19 10 10 7 10 12 9 21 20 22 24 24 21 19 16 14 12 11 9 9 10 10 12 13 14
24 35 27 40 40 40 37 36 37 39 32 30 28 26 15 8 7 7 10 11 10 13 12 18 18 18 17 18 11 10 9 9 8 8 7 14 15 18 18 18 18 15 13 12 10 9 8 9 10 10 11 12 13 15
13 10 16 35 35 40 39 35 36 37 37 28 18 13 5 6 6 8 15 12 10 11 14 16 20 17 14 16 8 7 8 8 7 6 10 13 14 15 16 16 13 11 11 10 9 9 10 10 10 11 12 15 16 17
10 9 16 29 33 35 34 29 25 30 35 15 10 9 13 10 12 10 14 15 14 12 15 17 18 13 13 7 8 7 8 6 8 9 12 10 11 14 15 12 10 10 10 10 10 10 11 11 12 14 16 18 19 20
10 11 12 15 21 28 34 31 31 29 27 8 5 9 12 10 10 11 12 12 14 15 14 13 11 7 7 5 7 7 4 5 9 8 9 9 9 9 9 9 12 13 12 11 11 11 13 14 16 18 19 20 22 22
11 14 15 17 16 16 18 20 20 26 7 8 7 7 10 11 11 12 12 12 12 13 13 6 6 5 6 5 6 7 8 10 9 7 6 6 5 8 10 12 12 12 13 13 14 14 16 18 19 20 22 21 24 26
10 13 14 12 13 15 21 26 22 13 11 10 12 10 9 9 8 8 9 10 8 9 9 7 6 7 5 4 5 5 5 5 5 4 4 8 11 12 11 12 13 14 15 15 15 17 18 20 21 22 22 23 26 29
7 7 5 9 12 12 14 12 11 11 14 15 16 14 12 11 10 9 8 7 7 7 7 7 4 6 6 6 5 5 4 4 4 6 7 9 10 11 13 14 14 15 15 17 19 20 20 22 23 24 24 27 29 32
19 15 15 10 6 5 8 8 9 12 17 16 14 11 11 10 9 9 8 7 7 7 6 4 5 6 5 6 7 7 6 6 6 6 7 8 10 12 13 15 16 16 17 19 20 22 23 24 24 25 27 30 32 35
11 11 11 11 8 5 9 9 9 13 14 12 9 7 5 5 5 6 6 7 8 8 8 7 7 7 6 6 7 7 8 8 8 9 9 9 11 13 14 15 15 19 23 23 23 22 25 26 27 29 31 33 36 39
7 6 7 7 7 8 8 10 12 14 14 14 12 8 7 6 5 5 7 7 7 7 8 8 7 7 7 8 9 9 10 10 10 12 14 14 14 14 15 16 18 21 21 21 23 26 26 27 29 31 34 37 40 42
3 3 3 3 4 5 10 11 12 11 9 10 8 7 6 5 5 5 4 4 5 5 5 6 8 9 10 11 12 13 14 14 15 15 17 16 17 18 18 18 19 20 22 24 24 25 27 30 32 35 38 40 41 43
1 0 1 1 3 5 8 7 8 8 9 9 6 5 5 4 4 2 1 2 3 4 5 7 10 12 12 12 13 14 15 15 17 19 20 19 18 16 16 17 19 21 22 23 25 29 31 34 36 38 39 41 42 40
1 3 3 5 5 7 7 8 7 7 9 8 6 6 5 3 2 2 0 2 4 6 8 9 10 11 12 13 14 15 16 17 18 18 17 15 15 17 18 19 20 22 25 27 29 33 35 36 37 39 40 39 39 37
4 6 4 5 7 5 6 8 8 10 9 8 6 6 5 3 3 3 2 1 3 5 7 8 8 9 10 10 10 9 9 10 11 13 15 17 18 18 19 21 24 25 29 31 32 34 36 38 38 38 37 37 36 34
9 9 12 11 11 10 11 10 9 8 7 5 5 5 4 1 1 2 1 3 5 5 6 7 8 8 8 9 10 11 13 14 14 14 15 16 19 21 24 26 28 30 32 33 35 35 36 37 37 37 36 34 33 32
9 8 7 6 5 6 7 6 5 4 4 4 3 1 2 1 0 3 4 4 5 5 6 7 7 8 9 10 11 12 14 15 17 19 22 23 24 24 25 27 29 31 33 34 35 36 37 36 36 34 33 31 30 30
12 11 10 9 8 7 6 6 5 4 2 1 1 1 1 3 5 6 7 8 9 10 11 12 13 14 15 16 17 18 19 20 20 21 22 24 27 27 28 30 32 34 35 35 35 34 34 32 32 31 30 29 29 28
11 9 9 7 7 6 5 3 2 2 3 4 5 6 7 9 10 11 12 13 14 15 16 17 18 18 19 19 19 18 19 19 20 22 24 27 29 31 33 35 35 35 34 34 33 32 32 31 31 30 30 29 29 29
6 6 5 5 4 4 5 6 6 7 8 9 10 11 11 12 13 14 15 16 17 18 18 18 19 18 17 17 17 17 18 20 23 25 27 30 34 35 36 35 35 34 34 34 34 33 33 32 32 31 31 31 30 30
8 7 7 7 7 7 7 7 8 10 11 11 11 13 14 15 14 16 16 15 15 14 14 13 13 13 15 17 18 20 23 25 28 32 34 34 34 35 35 35 35 35 34 34 34 33 33 32 32 31 30 30 29 29
8 8 8 7 7 6 7 8 9 10 11 11 13 13 12 11 9 9 8 8 8 10 11 12 14 15 17 20 22 25 30 33 34 33 33 33 34 34 34 33 33 33 33 32 32 31 31 30 30 29 29 29 28 27